GEFSCGP_con_maxscp_114.txt.gz
SCP
0 0 0 0 0 0 0 0 0 0 1 1 1 1 1 1 2 2 2 3 3 4 5 5 5 4 3 2 2 2 2 3 3 3 2 2 3 2 2 2 2 1 1 1
0 0 0 0 0 0 0 0 0 0 1 1 1 1 1 1 1 2 2 2 3 4 5 4 4 3 3 2 2 2 2 2 3 3 2 2 2 2 2 2 1 1 1 1
0 0 0 0 0 0 0 0 0 0 0 1 1 1 1 1 1 1 2 2 2 4 4 4 3 2 2 2 2 2 2 2 3 3 3 2 3 2 2 2 1 1 1 1
0 0 0 0 0 0 0 0 0 0 0 0 0 0 1 1 1 1 1 2 2 3 4 3 2 2 2 2 2 2 3 3 3 3 3 3 3 3 2 2 2 2 1 1
0 0 0 0 0 0 0 0 0 0 0 0 0 0 0 1 1 1 1 1 2 3 3 2 1 1 1 1 1 2 3 3 3 3 3 3 3 3 3 2 2 2 1 1
0 0 0 0 0 0 0 0 0 0 0 0 0 0 0 0 1 1 1 1 1 2 2 1 1 1 1 1 1 1 2 2 2 3 3 3 3 4 3 3 3 2 1 1
0 0 0 0 0 0 0 0 0 0 0 0 0 0 0 0 1 1 1 1 1 1 1 1 1 2 2 2 2 2 2 2 2 2 2 3 3 4 4 4 3 2 1 1
0 0 0 0 0 0 0 0 0 0 0 0 0 0 0 1 1 1 1 1 1 1 1 1 2 2 2 2 2 2 2 2 2 2 2 2 2 3 3 3 3 3 2 2
0 0 0 0 0 0 0 0 0 0 0 0 0 0 0 1 1 1 1 1 1 1 1 1 2 2 2 2 2 2 2 2 2 2 1 1 2 2 2 2 3 3 2 2
0 0 0 0 0 0 0 0 0 0 0 0 0 0 0 1 1 1 1 1 1 1 1 1 1 2 2 2 1 2 2 2 2 2 1 1 1 1 1 2 2 3 3 2
0 0 0 0 0 0 0 0 0 0 0 0 0 0 0 1 1 1 1 1 1 1 1 1 1 2 2 2 1 1 1 2 1 1 1 1 1 1 1 1 2 4 4 4
0 0 0 0 0 0 0 0 0 0 0 0 0 0 0 1 1 1 1 1 1 1 1 1 1 2 2 2 1 1 1 1 1 2 1 1 1 1 1 1 2 4 5 5
1 0 0 0 0 0 0 0 0 0 0 0 0 0 1 1 1 1 1 1 2 2 2 2 2 2 2 2 1 1 1 1 1 2 2 2 2 2 2 2 2 3 4 4
1 1 1 0 0 0 0 0 0 0 0 0 0 0 1 1 1 1 1 2 2 2 2 2 2 2 2 2 1 1 1 1 1 1 2 2 2 2 2 2 2 3 3 3
1 1 1 1 0 0 0 0 0 0 0 0 0 0 1 1 1 1 1 2 2 2 3 3 3 2 2 2 1 1 1 1 1 1 2 2 3 2 2 2 2 3 3 3
2 1 1 1 1 0 0 0 0 0 0 0 1 1 1 1 1 1 1 2 2 2 3 3 3 2 2 2 1 1 1 1 1 2 2 2 2 2 2 2 2 3 3 3
2 1 1 1 1 1 1 0 0 0 1 1 1 1 2 1 1 2 2 2 2 3 3 3 3 2 2 2 2 2 1 1 2 2 2 3 3 2 2 2 2 3 3 3
1 1 1 1 1 1 1 1 1 1 1 1 2 2 2 2 2 2 2 2 2 3 3 3 3 3 3 2 3 2 2 2 2 2 3 3 3 3 3 3 3 3 3 4
2 1 1 1 1 0 1 1 1 1 1 2 2 2 2 2 2 2 2 2 2 3 3 3 3 3 3 3 3 3 3 3 3 3 4 4 4 3 3 3 4 4 4 4
1 1 1 1 0 0 1 1 1 1 1 2 2 3 3 3 3 3 3 3 4 3 3 3 3 4 3 3 3 3 4 4 4 4 4 4 4 3 3 4 4 5 5 4
1 1 1 1 1 1 1 1 1 1 2 2 2 3 3 3 3 4 5 5 5 4 4 4 4 4 4 3 4 4 5 5 4 4 4 3 3 3 3 3 4 5 5 4
1 1 1 1 1 1 1 1 1 2 2 2 3 3 3 3 4 5 6 6 6 5 4 4 4 4 4 4 5 6 6 5 5 4 3 3 3 3 3 3 4 4 5 5
2 1 1 1 1 1 1 1 1 2 2 2 3 3 3 3 4 5 5 4 4 3 3 3 2 3 3 4 5 6 6 6 5 4 3 3 2 3 3 3 4 4 4 4
1 1 1 1 1 1 1 1 1 1 1 2 2 2 2 3 4 3 3 2 2 2 2 2 2 2 3 4 4 5 4 4 4 3 3 2 2 3 3 2 2 2 2 2
1 1 0 0 0 1 1 1 1 1 1 1 1 1 1 2 2 2 1 1 1 1 1 1 1 2 2 2 2 2 2 2 2 2 2 2 2 2 1 1 1 1 1 1
0 0 0 0 0 0 1 1 1 1 1 1 1 1 1 1 1 1 1 1 1 0 0 1 1 1 2 2 2 1 1 1 1 1 1 1 1 1 1 0 0 0 0 0

GEFSCGP_con_maxscp_120.txt.gz
SCP
0 0 0 0 0 0 0 0 0 0 0 0 0 1 1 2 2 3 6 8 7 8 11 14 15 15 14 14 13 11 9 7 5 3 3 3 3 3 3 3 3 2 2 2
0 0 0 0 0 0 0 0 0 0 0 0 1 1 2 2 2 3 5 7 7 8 12 15 17 17 15 13 11 9 7 7 5 4 3 3 3 3 3 3 3 3 2 2
0 0 0 0 0 0 0 0 0 0 0 0 1 1 2 2 2 2 4 5 6 7 11 16 18 17 15 12 8 6 5 6 5 4 3 2 2 2 2 3 3 3 2 2
0 0 0 0 0 0 0 0 0 0 0 0 1 1 2 2 2 2 3 4 4 5 10 15 16 13 10 8 6 4 4 4 4 4 3 3 2 2 2 3 4 3 3 2
0 0 0 0 0 0 0 0 0 0 0 0 0 1 1 2 2 2 3 3 3 4 8 12 12 9 6 5 4 4 3 3 3 3 3 3 3 2 2 3 4 4 3 3
0 0 0 0 0 0 0 0 0 0 0 0 0 1 1 1 2 2 3 3 3 4 5 7 7 6 5 4 3 3 3 3 3 3 3 4 4 3 3 3 3 4 3 3
0 0 0 0 0 0 0 0 0 0 0 0 0 1 1 1 1 2 3 3 3 3 4 5 5 5 5 5 4 4 3 3 3 3 3 3 4 3 3 3 4 4 3 3
0 0 0 0 0 0 0 0 0 0 0 0 1 1 1 1 1 2 3 3 2 2 3 4 4 4 5 5 5 5 4 3 3 2 3 3 3 3 3 3 4 4 3 3
0 0 0 0 0 0 0 0 0 0 0 0 1 1 1 1 1 2 3 3 2 2 3 3 3 4 5 5 6 5 5 4 3 3 3 3 2 2 3 3 3 4 3 3
0 0 0 0 0 0 0 0 0 0 0 0 1 1 1 1 1 2 2 2 2 2 2 3 3 4 4 5 6 6 5 4 4 3 2 2 2 2 2 2 3 3 3 3
0 0 0 0 0 0 0 0 0 0 0 0 0 1 1 1 1 1 2 2 2 3 3 3 3 4 4 5 6 6 5 4 4 3 2 2 2 2 2 2 2 3 3 3
0 0 0 0 0 0 0 0 0 0 0 0 0 1 1 1 1 1 2 2 3 3 3 3 3 3 4 5 6 6 6 4 4 3 2 2 2 2 2 2 2 2 3 3
0 0 0 0 0 0 0 0 0 0 0 0 1 1 1 1 2 2 3 3 3 3 3 3 3 4 4 5 6 7 6 4 3 3 2 2 2 2 2 2 2 2 2 3
0 0 0 0 0 0 0 0 0 0 0 0 1 1 1 2 3 3 3 3 4 4 4 4 4 4 5 6 8 8 6 4 3 3 2 2 2 2 2 2 2 2 3 3
1 1 1 1 0 1 0 0 0 0 0 0 1 1 2 3 4 4 4 4 4 4 5 5 5 5 5 7 8 8 6 4 3 3 3 3 3 2 2 2 2 2 3 3
1 1 1 1 0 0 0 0 0 0 0 0 1 2 4 5 5 5 5 6 6 6 6 6 6 6 5 6 7 7 5 4 3 3 3 3 3 3 2 2 2 2 3 3
1 1 1 1 1 1 1 1 0 0 0 1 1 2 5 6 7 7 7 8 9 9 8 8 7 7 6 6 6 5 4 4 3 3 3 3 4 3 3 2 2 3 3 3
1 1 1 1 1 1 1 1 1 1 1 1 2 3 6 8 9 9 8 8 9 9 9 9 8 7 6 5 5 4 4 4 4 4 4 4 4 3 3 3 3 3 3 3
1 1 1 1 1 1 1 1 1 1 1 2 3 5 7 8 9 9 9 9 8 8 9 9 8 6 5 4 4 5 4 4 4 4 4 4 4 4 3 3 3 4 3 3
1 1 1 1 1 1 1 1 1 1 1 2 5 7 7 7 7 7 9 8 8 8 8 9 8 7 6 5 6 6 5 5 4 5 4 4 4 4 4 3 3 3 3 3
1 1 1 1 1 1 1 1 1 1 2 3 5 6 6 6 6 7 8 9 9 9 10 10 10 10 9 8 7 7 7 6 6 7 6 5 4 4 4 3 3 3 3 3
1 1 1 1 1 2 2 2 2 2 2 3 4 5 5 5 7 9 10 10 10 11 12 12 12 11 11 9 8 7 7 7 7 7 7 6 5 4 4 4 3 3 3 3
3 3 2 2 3 3 3 2 2 2 2 2 3 3 4 5 7 8 10 10 11 12 12 12 11 10 10 8 7 7 6 5 5 6 6 6 5 4 4 3 3 3 3 3
4 4 4 3 4 4 3 2 2 3 3 2 2 2 3 4 5 6 8 10 11 11 11 9 8 8 7 7 6 6 5 4 4 5 6 6 5 4 3 2 2 3 3 3
3 3 3 3 2 3 3 2 3 3 3 2 2 2 3 3 3 4 5 7 8 8 7 6 6 6 6 6 5 5 4 4 4 4 4 4 4 2 1 1 1 1 1 1
1 2 2 1 1 1 2 2 2 2 2 2 2 2 2 2 3 3 3 4 5 4 4 4 4 5 5 5 5 5 4 4 3 3 3 3 2 1 0 0 0 0 0 0

GEFSCGP_con_maxscp_126.txt.gz
SCP
0 0 0 0 0 0 0 0 0 0 0 1 1 1 2 2 3 4 4 5 5 5 6 7 8 8 6 5 5 5 5 4 4 3 2 1 1 1 1 1 1 1 1 1
0 0 0 0 0 0 0 0 0 0 0 0 0 1 2 2 3 4 4 4 4 5 6 6 7 7 6 5 5 5 5 4 4 3 2 1 1 1 1 1 1 1 1 1
0 0 0 0 0 0 0 0 0 0 0 0 0 1 1 2 3 3 3 3 4 4 5 5 6 6 6 7 7 7 6 5 4 3 2 1 1 1 1 1 1 1 1 1
0 0 0 0 0 0 0 0 0 0 0 0 0 0 1 1 2 3 3 3 3 4 4 4 5 6 7 9 9 7 6 5 3 2 2 1 1 1 1 1 1 1 1 1
0 0 0 0 0 0 0 0 0 0 0 0 0 0 0 1 2 3 3 3 3 3 3 3 4 5 6 7 7 5 4 3 2 2 2 2 1 1 1 1 1 1 1 1
0 0 0 0 0 0 0 0 0 0 0 0 0 0 0 1 2 2 3 3 3 3 3 3 3 3 4 4 4 3 3 2 2 2 3 2 1 1 1 1 1 1 1 1
0 0 0 0 0 0 0 0 0 0 0 0 0 0 0 1 2 2 3 3 3 3 2 2 2 2 2 2 2 3 3 2 2 2 2 1 1 1 1 1 1 1 2 2
0 0 0 0 0 0 0 0 0 0 0 0 0 0 1 1 2 2 2 2 3 2 2 2 2 2 2 2 2 2 2 2 2 1 1 1 1 1 1 1 1 1 2 2
0 0 0 0 0 0 0 0 0 0 0 0 0 0 1 2 2 2 2 2 2 2 2 2 2 3 2 2 2 2 2 2 1 1 1 1 1 1 1 1 1 1 1 2
0 0 0 0 0 0 0 0 0 0 0 0 0 0 1 2 2 2 2 2 3 2 2 2 2 3 3 2 2 2 2 2 2 1 1 1 1 1 1 1 1 1 1 1
0 0 0 0 0 0 0 0 0 0 0 0 0 0 1 1 2 2 2 2 3 3 2 2 2 2 3 3 3 3 2 3 2 2 2 1 1 1 1 1 1 1 1 1
0 0 0 0 0 0 0 0 0 0 0 0 0 0 1 1 1 2 2 2 2 2 2 1 1 1 2 3 3 3 3 3 3 3 2 2 2 2 1 1 1 1 1 1
0 0 0 0 0 0 0 0 0 0 0 0 0 1 1 1 2 2 2 2 2 2 2 2 1 1 1 3 4 4 4 4 4 4 3 3 2 2 1 1 1 1 1 1
0 0 0 0 0 0 0 0 0 0 0 0 1 1 2 2 2 2 2 2 2 3 3 2 1 1 1 3 4 5 5 6 6 5 4 3 3 2 1 1 1 1 1 1
0 0 0 0 0 0 0 0 0 0 0 1 1 2 3 3 3 3 3 3 3 3 3 2 2 2 2 3 5 6 7 7 7 6 5 4 3 2 2 1 1 2 2 2
0 0 0 0 0 0 1 1 1 1 1 1 2 3 4 4 4 4 4 4 4 4 3 3 2 3 3 3 5 6 7 7 8 7 5 4 3 3 2 2 2 2 2 2
0 0 0 0 0 0 1 1 1 2 2 2 2 3 4 4 4 4 4 4 4 4 3 3 3 3 3 3 5 7 7 8 7 6 5 4 3 3 3 3 3 2 2 3
0 0 0 0 0 0 1 1 1 2 2 2 2 3 3 4 4 4 4 4 4 4 4 3 3 3 3 3 5 7 8 8 7 6 5 4 3 2 2 3 3 3 3 3
0 0 0 0 0 0 1 1 1 2 2 2 2 3 3 4 4 4 5 6 6 7 6 5 4 4 5 5 6 7 7 7 6 5 4 3 3 2 2 2 3 3 3 3
0 0 0 0 0 0 1 1 1 1 2 2 2 2 3 3 3 3 4 6 8 9 8 7 5 4 5 6 6 6 6 6 5 5 4 3 2 2 2 2 2 2 2 2
0 0 0 0 0 0 1 1 1 1 1 2 2 2 3 3 3 3 3 4 6 7 7 7 6 5 4 5 5 5 5 5 5 5 4 3 2 2 2 1 1 1 1 1
0 0 0 0 0 1 1 1 1 1 1 2 2 2 3 3 3 4 4 4 4 5 5 6 7 5 4 5 5 4 4 4 5 4 3 2 3 3 2 1 1 1 1 1
0 0 0 0 0 1 1 1 1 2 2 1 1 2 3 3 4 5 5 5 4 4 4 5 6 6 5 5 4 3 2 3 3 3 2 2 2 2 2 1 1 1 1 1
1 1 0 0 1 1 1 1 2 2 1 1 1 2 3 3 3 4 5 5 4 3 3 3 4 4 4 4 3 2 1 1 1 1 1 1 1 2 2 1 1 0 0 1
1 1 0 0 0 0 1 1 2 1 1 1 1 1 1 2 2 2 3 3 4 3 3 3 3 3 2 2 1 1 1 1 1 0 0 1 1 1 1 1 0 0 0 1
1 1 0 0 0 0 1 1 1 1 0 1 1 1 1 1 1 1 2 2 3 3 3 3 2 2 1 1 1 1 1 1 1 0 0 0 0 1 1 0 0 0 0 0

GEFSCGP_con_maxscp_132.txt.gz
SCP
0 0 0 0 0 0 0 0 0 0 0 0 0 0 1 1 1 2 2 3 3 3 3 3 4 4 4 3 3 3 2 2 2 1 1 1 1 1 1 1 1 1 1 0
0 0 0 0 0 0 0 0 0 0 0 0 0 0 1 1 1 2 2 2 3 4 4 4 4 4 4 4 3 3 3 2 1 1 1 1 1 1 1 1 1 1 1 0
0 0 0 0 0 0 0 0 0 0 0 0 0 0 0 1 1 2 2 2 2 3 4 4 3 3 3 3 3 4 3 3 2 1 1 1 1 1 1 1 1 1 0 0
0 0 0 0 0 0 0 0 0 0 0 0 0 0 0 0 1 1 1 2 2 2 3 3 3 2 2 2 2 3 3 3 2 2 2 2 1 1 1 1 1 1 0 0
0 0 0 0 0 0 0 0 0 0 0 0 0 0 0 0 1 1 1 1 2 2 3 3 2 2 2 1 1 2 2 2 2 2 2 2 1 1 1 0 0 0 1 1
0 0 0 0 0 0 0 0 0 0 0 0 0 0 0 0 0 1 1 1 2 2 2 2 2 1 1 1 1 1 1 1 2 2 2 2 1 1 1 0 0 0 1 1
0 0 0 0 0 0 0 0 0 0 0 0 0 0 0 0 0 0 1 1 1 2 2 2 2 1 1 1 1 1 1 1 1 1 2 2 1 1 1 0 0 1 1 1
0 0 0 0 0 0 0 0 0 0 0 0 0 0 0 0 0 0 1 1 1 1 1 1 1 1 2 2 1 1 1 1 1 1 1 1 1 1 0 0 0 1 1 1
0 0 0 0 0 0 0 0 0 0 0 0 0 0 0 0 0 0 1 1 1 1 1 1 1 1 1 1 2 2 2 1 1 1 1 1 1 0 0 0 0 1 1 1
0 0 0 0 0 0 0 0 0 0 0 0 0 0 0 0 0 0 1 1 1 1 1 1 1 1 1 1 1 2 2 2 2 1 1 1 0 0 0 0 0 1 1 1
0 0 0 0 0 0 0 0 0 0 0 0 0 0 0 0 0 0 1 1 1 1 2 2 1 1 1 1 1 1 2 2 2 2 1 1 1 0 0 0 0 1 1 1
0 0 0 0 0 0 0 0 0 0 0 0 0 0 0 0 1 1 1 1 1 2 2 2 1 1 1 1 1 1 1 2 2 2 2 2 1 1 1 0 0 1 1 1
0 0 0 0 0 0 0 0 0 0 0 0 0 0 0 1 1 1 1 1 2 2 2 2 2 1 1 1 1 1 1 1 2 2 3 2 2 1 1 1 1 1 1 1
0 0 0 0 0 0 0 0 0 0 0 0 0 0 1 1 1 1 1 1 2 2 2 2 2 2 2 2 2 1 1 1 1 2 2 3 2 2 2 1 1 1 1 1
0 0 0 0 0 0 0 0 0 0 0 0 0 0 1 1 1 1 1 1 2 2 2 2 2 2 2 2 2 1 1 1 1 2 2 2 3 3 3 2 2 1 1 1
0 0 0 0 0 0 0 0 0 0 0 0 0 1 1 1 2 1 1 1 1 2 2 2 1 1 2 2 1 1 1 1 1 1 2 2 3 3 3 3 3 2 1 1
0 0 0 0 0 0 0 0 1 1 1 1 1 1 1 1 2 2 2 2 1 1 1 1 1 1 1 1 1 1 1 1 1 1 2 2 3 3 4 4 3 3 2 1
0 0 0 0 0 0 0 1 1 1 1 1 1 1 1 2 2 2 2 2 2 2 1 1 1 1 1 1 1 1 1 1 1 1 2 2 3 4 4 4 3 3 2 2
0 0 0 0 0 0 0 1 1 1 1 1 1 1 2 2 2 3 3 2 2 2 2 2 2 1 1 1 1 1 1 1 1 1 1 2 4 5 4 4 4 3 2 2
0 0 0 0 0 0 0 1 1 1 1 1 1 1 2 2 2 2 2 2 3 3 3 3 2 2 1 1 1 1 1 1 1 1 2 3 5 5 5 5 4 3 2 2
0 0 0 0 0 0 0 0 0 0 1 1 1 2 2 2 2 2 2 2 2 2 2 2 2 1 1 1 1 1 2 2 2 2 2 3 5 6 6 5 4 3 2 1
0 0 0 0 0 0 0 0 0 0 1 1 2 2 3 3 2 1 1 1 1 1 1 1 1 1 1 1 1 2 2 3 3 3 3 3 5 5 5 5 4 2 1 1
0 0 0 0 0 0 0 0 0 0 1 2 2 2 3 2 2 1 1 1 1 1 1 1 1 1 2 2 2 2 2 3 3 2 2 3 3 4 4 3 2 1 1 0
0 0 0 1 1 1 1 0 0 1 1 2 2 2 2 2 2 2 1 1 1 1 1 1 1 1 2 2 2 2 2 2 1 1 2 2 2 2 2 2 1 1 0 0
1 0 1 1 1 1 1 0 0 1 1 1 1 1 1 2 2 2 2 1 1 1 1 1 1 2 3 3 2 1 1 1 0 1 1 1 1 1 1 1 1 0 0 0
1 0 1 1 1 1 1 0 0 1 1 1 1 1 1 1 2 3 3 2 1 1 1 1 2 2 3 2 2 1 0 0 0 0 0 1 1 1 0 0 0 0 0 0

GEFSCGP_con_maxscp_138.txt.gz
SCP
0 0 0 0 0 0 0 0 0 0 0 0 0 0 1 1 1 1 1 1 2 2 3 3 4 3 3 3 3 3 4 4 3 3 3 3 2 2 2 2 2 2 1 1
0 0 0 0 0 0 0 0 0 0 0 0 0 0 1 1 1 1 1 2 2 2 3 3 3 3 3 3 3 3 4 4 4 3 3 3 3 2 2 2 2 1 1 1
0 0 0 0 0 0 0 0 0 0 0 0 0 0 1 1 1 1 1 2 2 2 2 3 3 3 3 3 3 3 3 3 3 3 3 3 3 2 2 2 1 1 1 1
0 0 0 0 0 0 0 0 0 0 0 0 0 0 1 1 1 1 1 2 2 2 2 2 3 2 2 2 2 2 3 3 3 3 3 3 2 2 2 2 2 1 1 1
0 0 0 0 0 0 0 0 0 0 0 0 0 0 0 1 1 1 1 2 2 2 2 2 2 2 2 2 2 2 2 2 3 3 3 3 2 2 2 3 2 2 2 2
0 0 0 0 0 0 0 0 0 0 0 0 0 0 0 0 1 1 1 2 2 2 2 2 2 2 2 2 2 2 2 2 2 3 3 3 2 2 3 3 3 3 2 2
0 0 0 0 0 0 0 0 0 0 0 0 0 0 0 0 1 1 1 1 2 2 2 2 2 2 2 2 2 2 1 2 2 2 2 2 2 2 3 4 4 3 2 2
0 0 0 0 0 0 0 0 0 0 0 0 0 0 0 0 1 1 1 1 2 2 2 2 2 2 2 2 1 1 1 1 1 1 2 2 2 2 3 4 4 3 3 2
0 0 0 0 0 0 0 0 0 0 0 0 0 0 0 1 1 1 1 1 2 2 2 2 2 2 2 1 1 1 1 1 1 1 1 1 2 2 3 3 3 3 3 2
0 0 0 0 0 0 0 0 0 0 0 0 0 0 0 1 1 1 1 1 1 2 2 2 2 2 2 1 1 1 1 1 1 1 1 1 1 2 2 3 3 2 2 2
0 0 0 0 0 0 0 0 0 0 0 0 0 0 0 1 1 1 1 1 1 2 2 2 2 2 2 2 2 2 2 2 2 1 1 1 1 2 2 2 2 2 2 2
0 0 0 0 0 0 0 0 0 0 0 0 0 0 0 1 1 1 1 2 2 2 2 2 2 2 2 2 2 2 2 2 2 2 2 1 1 1 1 1 1 1 1 1
0 0 0 0 0 0 0 0 0 0 0 0 0 0 1 1 1 1 1 2 2 2 2 2 2 1 1 2 2 2 2 2 2 2 2 2 2 2 2 1 1 1 1 1
0 0 0 0 0 0 0 0 0 0 0 0 0 0 1 1 2 2 2 2 3 3 3 2 2 2 2 2 2 1 1 2 2 2 2 2 3 3 2 2 2 2 2 1
0 0 0 0 0 0 0 0 0 0 0 0 0 1 1 2 2 2 2 2 2 2 3 3 3 3 2 2 2 2 2 2 2 2 2 2 3 3 3 3 2 2 2 2
0 0 0 0 0 0 0 0 0 0 0 0 1 2 2 2 2 2 2 2 2 2 3 3 3 3 2 2 2 2 3 3 2 2 2 2 2 3 3 3 3 3 3 3
0 0 0 0 0 0 0 0 0 0 1 1 1 2 2 2 3 2 2 2 2 2 3 3 3 2 2 2 2 3 3 3 3 2 2 2 2 2 2 2 3 3 3 3
1 1 0 0 0 0 0 1 1 1 1 1 1 2 2 2 3 2 2 2 3 3 3 3 3 3 2 2 2 2 3 3 2 2 2 2 2 2 2 2 3 3 4 4
1 1 0 0 0 0 1 1 1 1 1 2 2 2 2 2 2 2 2 2 3 3 3 4 4 3 3 2 2 2 2 2 2 2 2 2 2 2 2 3 3 4 4 5
1 1 1 0 0 1 1 1 1 1 1 2 2 3 3 2 2 2 2 2 2 3 3 3 4 4 4 4 3 3 2 2 2 2 3 3 3 3 4 4 4 4 5 5
1 1 1 1 0 1 1 1 2 2 2 2 3 4 3 3 3 2 2 2 2 3 3 3 4 4 5 4 3 3 2 2 3 3 3 3 4 4 5 5 4 5 5 6
1 1 1 1 1 1 1 2 2 3 3 3 3 3 4 3 3 3 2 2 3 3 3 4 3 3 4 4 4 3 3 3 3 4 4 5 5 5 5 5 5 5 6 7
1 1 1 1 1 1 2 2 3 3 3 3 3 3 3 3 3 2 3 3 2 3 3 3 3 3 3 3 3 4 3 4 4 5 5 6 6 5 5 4 4 4 6 7
1 1 1 1 1 1 2 2 3 4 4 4 3 3 3 3 2 2 2 2 2 2 2 3 3 3 3 4 4 4 4 4 5 5 5 5 5 4 4 3 3 3 5 6
1 1 2 2 1 1 2 2 3 5 5 5 4 3 3 3 2 2 2 2 3 3 2 2 3 3 3 4 4 4 4 4 4 5 4 4 3 3 2 2 1 2 3 4
2 2 2 2 2 2 2 3 4 5 5 5 3 3 3 2 2 2 2 2 3 3 2 2 3 3 3 4 5 5 5 4 4 4 4 3 2 1 1 1 1 2 2 3

GEFSCGP_con_maxscp_144.txt.gz
SCP
0 0 0 0 0 0 0 0 0 0 0 0 0 0 1 1 1 2 2 3 4 5 6 6 6 5 6 6 6 5 5 5 4 4 3 3 2 2 2 2 2 2 2 2
0 0 0 0 0 0 0 0 0 0 0 0 0 0 1 1 1 2 2 3 4 5 6 6 6 5 5 6 6 5 5 5 5 4 3 3 2 2 2 2 2 2 3 2
0 0 0 0 0 0 0 0 0 0 0 0 0 0 1 1 1 2 2 3 5 5 6 6 6 5 4 5 5 5 5 5 4 4 4 3 3 2 2 2 2 3 3 3
0 0 0 0 0 0 0 0 0 0 0 0 0 1 2 2 1 2 2 3 5 5 5 5 5 4 4 4 4 4 4 4 4 4 4 4 3 2 2 2 2 3 2 2
0 0 0 0 0 0 0 0 0 0 0 0 0 1 2 2 2 2 2 3 4 5 5 5 5 4 4 3 3 4 4 4 5 5 5 4 4 3 3 2 2 2 2 2
0 0 0 0 0 0 0 0 0 0 0 0 0 0 1 1 2 2 2 3 4 5 5 5 5 4 4 3 3 3 4 4 5 5 5 5 4 3 3 2 2 2 2 2
0 0 0 0 0 0 0 0 0 0 0 0 0 0 1 1 1 2 3 4 5 6 6 6 6 5 4 4 3 3 3 4 4 4 4 4 4 3 3 2 2 2 2 2
0 0 0 0 0 0 0 0 0 0 0 0 0 1 1 1 2 2 3 4 6 6 6 6 6 5 4 4 3 3 3 3 3 3 3 3 3 3 2 2 2 2 2 2
0 0 0 0 0 0 0 0 0 0 0 0 1 1 1 1 2 3 4 5 7 8 6 5 5 4 4 3 3 3 3 2 2 2 2 2 2 2 2 2 2 2 2 2
0 0 0 0 0 0 0 0 0 0 0 0 0 1 1 2 2 3 4 6 9 10 7 4 3 3 4 3 3 3 2 2 2 2 2 2 2 2 2 2 2 3 3 3
0 0 0 0 0 0 0 0 0 0 0 0 0 1 1 2 2 3 3 6 9 9 6 4 3 3 3 3 4 3 3 2 2 2 2 2 2 2 2 2 2 3 3 3
0 0 0 0 0 0 0 0 0 0 0 0 0 1 1 2 2 3 4 5 6 6 4 3 3 3 3 3 4 4 3 2 2 2 2 2 2 2 2 2 2 2 3 2
0 0 0 0 0 0 0 0 0 0 0 0 1 1 2 2 2 3 4 4 4 4 3 3 4 4 4 3 4 3 2 2 2 2 2 2 2 3 3 2 2 2 2 2
0 0 0 0 0 0 0 0 0 0 0 0 1 2 2 3 3 4 4 4 4 4 4 4 5 4 4 4 4 3 2 2 2 2 2 3 3 3 3 3 3 3 3 3
0 0 0 0 0 0 0 0 0 0 0 1 2 4 5 5 5 5 5 4 4 4 5 6 6 5 5 5 4 3 2 2 2 2 3 3 3 3 3 3 4 4 4 3
0 0 0 0 0 0 0 0 0 0 0 1 3 5 7 7 6 6 6 5 5 5 5 6 7 6 5 4 4 3 3 3 3 3 3 3 3 3 3 4 4 4 4 4
1 1 1 0 0 0 0 0 0 0 1 2 4 6 8 9 8 8 8 7 6 5 5 6 7 7 6 4 4 3 4 4 4 3 3 3 3 3 3 4 4 5 5 5
1 1 1 0 0 0 0 0 0 1 1 2 5 8 11 12 11 10 9 8 6 5 6 7 8 7 6 5 4 3 3 3 3 3 3 3 3 3 3 4 4 5 5 5
1 1 1 1 0 0 0 1 1 2 3 4 7 11 12 11 10 9 8 8 7 6 7 8 8 8 7 5 4 3 3 3 4 3 3 3 3 3 4 4 5 5 5 5
1 1 1 1 0 1 1 2 2 3 4 5 8 10 9 8 7 6 6 7 7 8 8 8 9 8 7 6 5 5 5 5 4 4 4 4 4 4 5 5 5 6 5 5
1 1 1 1 1 1 1 2 3 4 5 5 6 7 6 6 6 6 6 6 7 7 7 7 7 7 6 6 6 7 6 6 5 4 4 5 6 6 6 7 7 7 6 5
1 1 1 1 1 2 2 3 4 5 6 6 6 6 6 6 7 6 6 5 5 6 6 6 6 6 5 5 5 5 5 5 5 5 5 6 7 6 7 8 8 7 6 5
2 2 3 3 3 3 3 4 4 5 6 7 7 7 7 8 9 7 5 5 5 5 6 6 6 6 5 4 4 3 3 4 4 5 5 6 6 6 7 7 7 6 5 5
3 4 5 5 4 4 4 4 4 5 6 6 5 6 7 8 9 7 6 5 4 5 6 6 6 6 4 4 4 4 4 4 4 5 6 6 7 7 6 5 5 5 5 4
3 4 5 5 4 4 5 5 5 5 5 5 5 6 8 9 8 7 6 5 5 5 5 6 6 5 4 3 3 3 4 4 4 5 6 7 7 6 4 3 3 3 3 3
2 3 3 4 4 5 6 6 6 5 4 4 5 6 8 9 9 7 6 5 5 4 5 5 5 4 3 2 2 3 4 4 4 5 5 6 6 4 3 2 1 1 1 1

GEFSCGP_con_maxscp_150.txt.gz
SCP
0 0 0 0 0 0 0 0 0 0 0 0 1 2 3 4 4 5 6 8 9 10 9 8 7 5 4 5 5 4 4 3 2 2 2 1 1 1 1 1 1 1 1 1
0 0 0 0 0 0 0 0 0 0 0 0 1 2 2 3 4 5 8 10 11 10 9 8 6 5 4 4 4 4 3 3 2 2 2 1 1 1 1 1 1 1 1 1
0 0 0 0 0 0 0 0 0 0 0 0 1 1 2 3 4 6 10 12 11 9 7 6 5 4 4 4 4 4 3 3 2 2 2 2 1 1 1 1 1 1 1 1
0 0 0 0 0 0 0 0 0 0 0 0 1 1 1 2 5 8 11 11 9 7 5 4 4 4 4 4 4 4 3 3 2 2 2 2 2 1 1 1 1 1 1 1
0 0 0 0 0 0 0 0 0 0 0 0 0 0 1 2 6 10 11 11 9 6 4 4 4 4 4 5 5 4 3 2 2 2 2 2 2 2 1 1 1 1 1 0
0 0 0 0 0 0 0 0 0 0 0 0 0 0 0 2 6 10 11 10 7 6 5 4 4 5 5 5 5 4 3 2 2 2 2 2 2 2 2 1 1 1 1 0
0 0 0 0 0 0 0 0 0 0 0 0 0 0 0 2 5 8 8 7 6 6 5 5 5 5 5 4 4 3 2 2 1 1 2 2 2 2 2 1 1 1 0 0
0 0 0 0 0 0 0 0 0 0 0 0 0 0 1 2 4 6 6 6 6 6 5 5 5 5 4 3 3 2 2 1 1 1 1 1 1 1 1 1 1 0 0 0
0 0 0 0 0 0 0 0 0 0 0 0 0 0 1 2 3 4 5 5 7 7 5 4 4 4 3 3 2 2 2 1 1 1 1 1 1 1 1 1 1 1 0 0
0 0 0 0 0 0 0 0 0 0 0 0 0 0 1 2 3 4 5 8 10 9 5 3 3 3 3 3 2 2 2 1 1 1 1 1 1 1 1 1 1 1 1 1
0 0 0 0 0 0 0 0 0 0 0 0 0 0 1 2 3 4 6 10 13 10 6 3 2 3 3 2 2 2 2 1 1 1 1 1 1 1 1 1 1 1 1 2
0 0 0 0 0 0 0 0 0 0 0 0 0 0 1 2 4 5 7 9 10 8 5 3 2 2 2 2 2 2 1 1 1 1 1 1 1 2 1 1 1 1 2 3
0 0 0 0 0 0 0 0 0 0 0 0 0 1 2 3 4 6 7 7 7 6 4 3 2 2 2 2 2 2 1 1 1 1 1 1 2 2 1 1 1 1 1 2
0 0 0 0 0 0 0 0 0 0 0 0 1 2 3 3 4 6 6 6 7 6 5 3 2 2 2 2 2 2 2 2 2 2 2 2 2 1 1 1 1 1 1 1
0 0 0 0 0 0 0 0 0 0 0 1 2 3 3 3 5 6 6 6 7 7 6 5 3 2 2 2 2 2 2 2 2 2 2 2 2 2 2 2 1 1 1 1
0 0 0 0 0 0 0 0 0 0 0 1 2 3 3 4 6 7 7 6 7 7 7 6 4 3 3 3 3 2 2 2 2 2 2 2 2 2 2 2 2 2 2 2
0 0 0 0 0 0 0 0 0 1 1 2 2 2 3 5 6 7 7 6 6 7 7 6 4 3 4 4 3 2 2 2 2 2 2 2 2 2 2 2 2 2 2 2
0 0 0 0 0 0 0 0 0 1 2 2 2 3 4 5 6 7 6 6 7 7 7 5 4 4 4 4 3 2 2 2 2 2 2 2 2 2 2 2 2 2 2 2
0 0 0 0 0 0 0 0 1 2 2 2 4 5 6 6 6 6 6 7 7 7 7 6 5 5 5 4 3 2 2 2 2 2 2 2 2 2 2 2 3 3 2 2
0 0 0 0 0 0 1 1 1 2 2 3 5 6 7 7 6 6 7 8 8 9 9 8 7 6 5 4 4 3 3 3 2 2 2 2 2 2 2 2 3 3 2 2
1 1 1 0 1 1 1 1 1 2 3 4 5 6 6 7 7 8 10 11 11 11 10 9 8 7 5 4 3 3 3 3 2 2 1 1 1 2 2 2 3 2 2 2
1 1 1 1 0 1 1 1 1 2 3 4 5 5 6 7 8 9 10 11 11 11 10 7 6 5 3 3 2 2 2 2 1 1 1 1 1 1 1 2 2 2 2 2
1 1 1 1 1 1 1 2 2 3 5 5 5 6 7 7 8 9 8 8 8 8 8 6 3 2 2 1 1 1 1 1 1 1 1 1 1 1 1 1 2 2 2 2
1 1 1 1 2 2 3 3 3 5 7 7 6 5 5 6 8 9 7 6 6 6 5 4 2 1 1 1 1 1 1 1 1 1 1 1 1 1 1 1 1 1 1 1
1 1 1 1 1 2 3 4 4 5 6 7 6 5 5 5 7 9 7 6 5 4 3 2 2 1 1 1 1 1 1 1 1 1 1 1 1 1 0 0 0 1 1 1
1 1 2 1 1 2 3 3 4 4 5 5 5 5 5 6 8 8 8 6 5 4 2 2 1 1 1 1 1 1 1 1 1 0 0 0 0 0 0 0 0 0 0 0

GEFSCGP_con_maxscp_156.txt.gz
SCP
0 0 0 0 0 0 0 0 0 0 0 1 1 1 1 1 1 2 2 3 2 2 2 2 2 3 4 4 3 2 2 2 2 1 1 1 1 0 0 0 0 0 0 0
0 0 0 0 0 0 0 0 0 0 0 1 1 1 1 1 1 2 3 3 3 3 3 3 3 4 5 5 4 3 2 2 1 1 1 1 1 0 0 0 0 0 1 1
0 0 0 0 0 0 0 0 0 0 0 0 1 1 1 1 1 2 3 4 4 3 3 3 3 4 4 4 4 3 2 1 1 1 1 1 1 0 0 0 1 1 1 1
0 0 0 0 0 0 0 0 0 0 0 0 0 0 1 1 1 2 4 5 5 4 3 3 3 4 4 4 3 3 2 1 1 1 1 1 1 1 1 1 1 1 1 1
0 0 0 0 0 0 0 0 0 0 0 0 0 0 0 1 1 2 3 4 4 4 4 3 3 3 3 3 3 2 2 2 1 1 1 1 1 1 1 1 1 1 0 0
0 0 0 0 0 0 0 0 0 0 0 0 0 0 0 0 1 1 2 3 3 3 4 4 3 3 3 3 2 2 2 2 1 1 1 1 1 1 1 1 1 1 0 0
0 0 0 0 0 0 0 0 0 0 0 0 0 0 0 0 0 1 2 3 3 3 4 4 4 4 4 3 2 2 2 2 1 1 1 1 1 1 1 1 1 1 0 0
0 0 0 0 0 0 0 0 0 0 0 0 0 0 0 0 0 1 2 3 3 3 3 5 6 5 4 3 3 2 2 2 1 1 1 1 1 1 1 1 1 1 0 0
0 0 0 0 0 0 0 0 0 0 0 0 0 0 0 0 1 1 3 3 3 3 4 6 7 6 4 3 2 2 2 2 2 1 1 1 1 1 1 1 1 1 0 0
0 0 0 0 0 0 0 0 0 0 0 0 0 0 0 0 1 2 3 4 3 3 5 6 7 6 4 2 2 2 2 2 1 1 1 1 1 1 1 1 1 1 0 0
0 0 0 0 0 0 0 0 0 0 0 0 0 0 0 0 1 3 4 3 3 4 6 6 6 5 3 2 1 1 1 1 1 1 1 1 1 1 1 1 1 1 0 0
0 0 0 0 0 0 0 0 0 0 0 0 0 0 0 0 1 2 3 3 3 4 6 5 4 3 3 2 2 1 1 1 1 1 1 1 1 1 1 1 1 0 0 0
0 0 0 0 0 0 0 0 0 0 0 0 0 0 0 1 1 2 2 2 2 3 4 4 3 2 2 2 2 2 1 1 1 1 1 1 1 1 1 1 1 0 0 0
0 0 0 0 0 0 0 0 0 0 0 0 0 0 0 1 1 2 2 2 2 2 3 3 2 2 2 2 2 2 1 1 1 1 1 1 1 1 1 1 1 1 1 1
0 0 0 0 0 0 0 0 0 0 0 0 0 0 0 1 2 2 3 2 2 2 3 3 3 3 2 2 2 2 2 1 1 1 1 1 1 1 1 1 1 1 1 1
0 0 0 0 0 0 0 0 0 0 0 0 0 0 0 1 2 3 3 3 2 3 3 3 3 4 3 2 2 2 2 2 2 2 1 1 1 1 1 1 1 1 1 1
0 0 0 0 0 0 0 0 0 0 0 0 0 1 1 1 2 3 3 3 2 3 3 3 4 5 4 3 2 2 2 2 2 1 1 1 1 1 1 1 1 1 1 1
0 0 0 0 0 0 0 1 1 1 1 1 1 1 1 2 2 3 3 3 3 2 2 3 5 5 4 3 2 2 2 2 2 1 1 1 1 1 1 1 1 1 1 1
0 0 0 0 0 0 0 1 1 1 1 1 1 1 2 2 3 3 2 3 3 3 3 3 4 5 4 3 3 2 2 2 1 1 1 1 1 1 1 1 1 1 1 2
0 0 0 0 0 0 0 1 1 1 1 1 1 1 2 2 2 2 2 2 3 3 3 3 3 3 3 3 3 3 2 2 1 1 1 1 1 1 1 1 1 1 1 1
0 0 0 0 0 0 0 1 1 0 1 1 1 1 2 2 2 2 2 2 3 3 3 3 2 2 2 2 2 2 2 1 1 1 1 1 1 1 1 1 1 1 1 1
0 0 0 0 0 0 0 1 0 0 0 1 1 1 2 2 2 3 3 2 2 2 2 2 2 2 2 1 1 1 1 1 0 0 0 0 0 1 1 1 1 1 1 1
0 0 0 0 0 0 1 1 1 1 1 1 1 2 2 3 3 3 3 2 2 2 2 2 2 2 1 1 1 1 0 0 0 0 0 0 0 0 1 1 1 1 1 1
0 0 0 0 0 0 1 1 1 1 1 1 2 3 3 4 4 3 2 2 2 2 2 2 2 1 1 1 0 0 0 0 0 0 0 0 0 0 0 0 1 1 1 1
0 0 0 0 1 1 1 1 1 2 2 2 3 3 3 3 3 2 2 2 2 2 2 2 2 1 1 0 0 0 0 0 0 0 0 0 0 0 0 0 0 0 0 1
0 0 0 0 1 1 1 1 1 2 3 4 4 4 3 2 2 2 2 2 2 2 2 2 2 2 1 0 0 0 0 0 0 0 0 0 0 0 0 0 0 0 0 0

GEFSCGP_con_maxscp_162.txt.gz
SCP
0 0 0 0 0 0 0 0 0 0 0 0 0 0 1 1 1 1 1 2 2 2 2 2 2 2 2 3 3 3 3 3 4 5 5 4 3 2 1 1 1 1 1 1
0 0 0 0 0 0 0 0 0 0 0 0 0 0 1 1 1 1 1 2 2 2 2 2 2 2 2 3 3 3 3 3 3 4 3 3 3 2 1 1 1 1 1 1
0 0 0 0 0 0 0 0 0 0 0 0 0 0 1 1 1 1 1 1 2 2 2 2 2 2 2 3 3 3 3 3 3 2 2 2 2 2 1 1 1 1 1 1
0 0 0 0 0 0 0 0 0 0 0 0 0 0 1 1 1 1 1 1 2 2 2 2 2 2 2 3 3 3 3 3 3 2 2 2 2 1 1 1 2 2 1 1
0 0 0 0 0 0 0 0 0 0 0 0 0 0 0 1 1 1 1 1 1 2 2 3 3 2 2 2 3 3 3 3 3 3 2 2 2 1 1 1 1 2 2 1
0 0 0 0 0 0 0 0 0 0 0 0 0 0 0 1 1 1 1 1 1 2 3 3 3 3 2 2 2 2 2 2 2 2 2 2 2 2 2 1 1 1 2 2
0 0 0 0 0 0 0 0 0 0 0 0 0 0 0 1 1 1 1 1 1 2 2 3 3 3 2 2 2 2 2 2 2 2 2 2 2 2 2 1 1 1 1 2
0 0 0 0 0 0 0 0 0 0 0 0 0 0 0 1 1 1 1 1 2 2 2 3 3 2 2 2 2 2 2 2 2 2 2 2 2 2 1 1 1 1 1 1
0 0 0 0 0 0 0 0 0 0 0 0 0 0 0 1 1 1 1 1 2 2 2 2 2 2 2 2 2 2 2 2 2 1 1 1 2 1 1 1 1 1 1 1
0 0 0 0 0 0 0 0 0 0 0 0 0 0 0 0 1 1 1 1 2 2 2 2 2 2 2 3 2 2 1 1 1 1 1 1 1 1 1 1 1 1 1 1
0 0 0 0 0 0 0 0 0 0 0 0 0 0 0 0 1 1 1 1 2 2 3 3 3 3 3 3 2 2 2 2 2 2 2 1 1 1 1 1 1 1 1 1
0 0 0 0 0 0 0 0 0 0 0 0 0 0 0 0 1 1 2 2 2 2 3 3 3 3 3 3 2 2 2 2 3 3 3 2 1 1 1 2 2 1 1 1
0 0 0 0 0 0 0 0 0 0 0 0 0 0 0 0 1 1 2 2 2 2 2 3 3 3 3 2 2 3 2 2 3 4 4 3 2 2 2 2 2 1 1 1
0 0 0 0 0 0 0 0 0 0 0 0 0 0 0 1 1 2 2 2 2 2 2 2 2 2 2 2 2 3 2 2 4 5 5 5 4 3 3 2 2 1 1 1
0 0 0 0 0 0 0 0 0 0 0 0 0 0 0 1 1 2 2 2 2 3 3 3 3 3 3 3 3 3 3 3 4 5 5 5 5 5 4 3 2 1 1 1
0 0 0 0 0 0 0 0 0 0 0 0 0 0 0 1 1 2 2 2 3 3 3 3 3 3 3 3 3 3 4 4 6 6 6 6 7 6 5 3 2 1 1 1
0 0 0 0 0 0 0 0 0 0 0 0 0 0 1 1 2 2 2 3 3 4 4 4 4 4 4 4 4 5 5 6 6 6 7 7 7 5 4 3 2 2 2 2
0 0 0 0 0 0 0 0 0 0 0 0 0 1 1 1 2 2 3 3 3 4 5 5 5 5 5 5 6 7 7 6 6 6 7 6 5 3 2 2 2 2 2 2
0 0 0 0 0 0 0 1 1 1 1 1 1 1 1 1 2 2 3 3 3 3 5 5 5 5 6 6 7 7 7 6 5 6 5 4 3 2 2 2 3 3 3 2
0 0 0 0 0 0 1 1 1 1 1 1 2 2 2 2 2 2 2 3 3 3 4 5 5 6 6 6 6 6 6 5 5 4 4 3 2 2 2 2 3 3 3 3
0 0 0 0 0 1 1 1 1 1 1 2 2 2 2 2 2 3 3 3 4 4 4 5 5 6 7 6 6 5 5 5 4 3 2 2 2 2 2 2 2 3 2 2
1 1 1 1 1 1 1 2 2 2 2 2 3 3 3 3 3 4 4 4 5 5 5 5 5 6 7 6 5 5 5 4 3 2 1 1 1 1 1 1 2 2 2 2
1 1 1 1 1 1 2 2 2 2 3 3 3 3 3 3 3 4 4 4 6 7 6 6 5 6 6 6 5 5 5 3 2 1 1 1 1 1 1 1 1 1 2 2
1 1 1 2 2 2 2 2 2 3 3 3 3 3 3 3 3 3 4 5 6 7 7 7 6 6 7 7 6 6 5 3 2 1 1 0 0 1 1 1 1 1 1 1
1 1 1 2 2 2 2 2 2 3 3 3 3 3 3 2 3 3 4 5 6 7 7 7 8 8 8 8 7 6 4 3 2 1 0 0 0 0 0 1 1 1 1 1
1 1 1 2 2 2 2 2 2 2 3 3 3 3 2 2 3 4 4 5 5 6 6 7 8 8 9 8 7 5 4 3 2 1 0 0 0 0 0 0 0 0 1 1

GEFSCGP_con_maxscp_168.txt.gz
SCP
0 0 0 0 0 0 0 0 0 0 0 0 0 1 1 1 1 2 4 5 5 5 6 7 7 6 5 6 5 5 4 4 4 4 4 4 4 4 3 2 2 2 2 2
0 0 0 0 0 0 0 0 0 0 0 0 0 1 1 1 1 2 3 5 6 6 7 8 8 6 5 6 6 5 5 4 4 4 3 3 3 3 3 2 2 2 2 2
0 0 0 0 0 0 0 0 0 0 0 0 0 1 1 1 1 2 3 4 5 7 8 9 8 6 6 7 7 6 5 5 4 3 3 3 3 3 3 3 3 2 2 2
0 0 0 0 0 0 0 0 0 0 0 0 0 1 2 2 2 2 2 3 4 6 8 8 7 7 7 7 6 6 6 6 5 4 4 3 3 3 3 3 3 3 2 2
0 0 0 0 0 0 0 0 0 0 0 0 0 1 2 2 2 2 2 3 4 6 7 7 7 7 8 7 6 5 6 6 5 5 4 3 3 3 3 3 3 3 3 2
0 0 0 0 0 0 0 0 0 0 0 0 0 1 1 2 2 2 2 3 4 5 6 7 7 8 8 6 5 5 6 7 6 5 4 3 3 3 3 3 3 3 3 2
0 0 0 0 0 0 0 0 0 0 0 0 0 0 1 1 2 2 2 3 4 5 6 6 7 7 7 6 5 5 7 7 7 5 4 3 3 3 3 4 4 4 3 2
0 0 0 0 0 0 0 0 0 0 0 0 0 0 1 1 1 2 2 3 4 4 5 6 6 6 5 5 5 6 7 7 7 5 4 3 3 3 4 4 4 4 3 2
0 0 0 0 0 0 0 0 0 0 0 0 0 0 1 1 1 1 2 3 3 4 5 5 6 7 6 5 6 7 7 7 6 4 3 3 2 3 3 3 3 3 2 2
0 0 0 0 0 0 0 0 0 0 0 0 0 0 1 1 1 1 2 3 4 4 4 5 7 7 6 5 7 8 7 6 5 4 3 2 2 2 2 3 3 3 3 3
0 0 0 0 0 0 0 0 0 0 0 0 0 0 1 1 1 2 3 4 4 4 4 5 7 7 6 6 7 7 6 6 5 4 3 3 2 3 3 3 4 4 3 3
0 0 0 0 0 0 0 0 0 0 0 0 0 0 0 1 1 2 3 4 5 5 5 5 6 6 5 5 6 6 5 5 5 5 4 4 3 4 4 5 4 4 3 3
0 0 0 0 0 0 0 0 0 0 0 0 0 0 0 1 1 2 3 5 5 5 6 6 6 5 5 5 6 6 5 5 5 5 5 5 5 5 5 5 5 4 3 3
0 0 0 0 0 0 0 0 0 0 0 0 0 0 1 1 2 3 4 5 5 5 6 7 6 6 6 6 7 6 5 6 6 6 6 6 6 6 6 5 5 4 4 5
0 0 0 0 0 0 0 0 0 0 0 0 0 1 1 2 2 4 5 5 5 6 7 8 8 8 8 7 7 6 6 6 7 8 8 8 7 7 7 6 6 6 5 5
0 0 0 0 0 0 0 0 0 0 0 0 0 1 2 3 4 5 5 5 5 6 8 9 9 10 9 8 7 6 6 6 7 9 11 10 9 8 8 7 7 7 5 3
1 1 1 0 0 0 0 0 0 0 0 0 1 3 5 7 8 8 7 7 7 7 8 9 10 9 8 7 7 6 6 6 8 10 12 12 11 9 8 7 7 6 4 3
1 1 1 0 0 0 0 0 0 0 0 1 3 7 9 11 12 12 11 10 9 9 9 10 9 8 7 7 7 7 7 8 10 12 13 12 10 8 7 7 7 6 4 3
1 1 1 1 0 0 1 1 0 1 1 3 5 8 9 9 11 12 12 12 11 11 11 11 9 8 8 8 9 10 11 12 13 12 12 10 9 8 8 7 6 5 4 3
1 1 1 1 1 1 1 1 1 1 3 6 8 9 8 7 8 10 11 11 11 12 11 11 10 10 11 12 13 15 16 16 14 11 10 10 9 9 8 6 5 4 3 2
1 1 1 1 1 1 2 3 2 3 5 7 10 10 8 7 7 10 11 11 10 11 11 11 10 10 12 14 16 16 16 14 12 9 8 8 7 6 5 4 3 3 2 2
1 1 2 2 2 3 4 4 4 5 6 7 8 9 8 7 8 10 11 10 10 10 11 11 10 10 11 13 15 15 14 12 10 8 6 5 4 4 3 3 3 3 3 3
1 2 2 3 4 5 6 6 5 6 6 6 6 7 8 8 9 9 10 9 9 10 11 11 11 10 11 13 15 16 15 13 10 7 5 4 3 3 2 2 2 3 3 3
2 3 3 4 5 6 6 6 6 6 5 5 6 8 8 8 8 9 9 9 9 9 10 11 11 11 12 15 18 19 17 13 9 6 5 4 3 2 2 2 1 1 2 2
3 3 4 5 6 6 5 5 6 6 5 6 7 7 8 8 8 8 10 10 9 9 9 10 10 11 14 17 19 19 16 11 7 5 4 3 3 2 1 1 1 1 1 1
3 3 5 7 6 5 5 5 6 6 6 6 6 6 7 7 7 8 10 11 11 9 9 9 9 10 14 18 19 17 13 9 6 4 4 3 2 1 1 1 0 0 0 0

GEFSCGP_con_maxscp_174.txt.gz
SCP
0 0 0 0 0 0 0 0 0 0 0 1 1 1 2 2 3 5 6 7 7 7 7 7 6 5 4 4 4 4 3 3 3 2 2 2 2 2 1 1 1 1 1 1
0 0 0 0 0 0 0 0 0 0 0 1 1 1 2 3 4 5 6 7 7 8 8 7 6 5 4 4 4 4 3 3 2 2 2 2 2 1 1 1 1 1 1 1
0 0 0 0 0 0 0 0 0 0 0 1 1 1 2 4 4 5 5 6 7 8 7 6 6 5 4 4 4 3 3 2 2 2 2 2 1 1 1 1 1 1 1 1
0 0 0 0 0 0 0 0 0 0 0 0 0 1 2 3 4 4 4 5 5 6 6 6 6 5 4 4 4 4 3 3 2 2 2 2 1 1 1 1 1 1 1 1
0 0 0 0 0 0 0 0 0 0 0 0 0 1 1 2 3 3 4 4 5 6 6 6 7 6 4 3 4 4 4 3 2 2 2 1 1 1 1 1 1 1 1 1
0 0 0 0 0 0 0 0 0 0 0 0 0 1 1 2 3 3 4 5 6 7 7 8 8 7 5 4 4 4 3 3 2 2 2 1 1 1 1 1 1 1 1 1
0 0 0 0 0 0 0 0 0 0 0 0 0 1 1 1 2 3 4 6 8 9 9 10 9 7 5 4 4 4 3 2 2 2 2 1 1 1 1 1 1 1 1 1
0 0 0 0 0 0 0 0 0 0 0 0 0 1 1 1 2 3 5 7 9 10 11 10 9 7 5 5 5 4 3 2 2 2 2 1 1 1 1 1 1 1 1 1
0 0 0 0 0 0 0 0 0 0 0 0 0 0 1 1 3 4 5 7 8 10 11 10 8 6 6 5 5 4 3 2 2 2 2 1 1 1 1 1 1 1 1 1
0 0 0 0 0 0 0 0 0 0 0 0 0 0 0 1 3 5 6 7 8 8 9 9 8 6 6 6 5 4 3 3 2 2 2 2 1 1 1 1 1 1 1 1
0 0 0 0 0 0 0 0 0 0 0 0 0 0 0 1 3 5 6 7 7 7 8 8 7 6 6 6 5 4 4 3 3 2 2 2 2 2 2 2 2 2 1 1
0 0 0 0 0 0 0 0 0 0 0 0 0 0 0 2 3 5 6 6 7 8 9 8 7 7 7 6 5 5 5 4 3 3 3 3 3 3 2 2 2 2 1 1
0 0 0 0 0 0 0 0 0 0 0 0 0 0 1 2 4 5 6 7 8 9 10 9 8 8 7 6 5 5 5 5 4 4 4 4 4 3 3 3 3 2 1 1
0 0 0 0 0 0 0 0 0 0 0 0 0 1 2 4 5 6 8 10 10 11 10 8 7 8 7 6 5 5 5 5 4 5 5 5 4 4 4 3 3 2 1 1
0 0 0 0 0 0 0 0 0 0 0 0 1 2 3 4 5 6 9 11 11 10 9 8 7 7 6 5 4 4 5 5 5 6 6 6 6 5 4 4 3 2 2 2
0 0 0 0 0 0 0 0 0 0 0 1 2 3 4 5 5 7 8 10 10 9 8 8 7 6 5 5 4 4 4 5 5 7 8 9 8 7 5 4 3 3 2 2
0 0 0 0 0 0 0 0 1 1 1 2 2 3 5 7 8 9 9 9 9 9 9 9 8 6 5 4 4 4 5 5 5 6 8 11 11 9 6 4 4 3 2 2
0 0 0 0 0 0 0 1 1 2 3 3 4 5 7 11 13 13 10 9 8 9 10 10 8 7 5 5 5 5 5 5 6 7 9 11 12 9 6 4 3 2 2 1
0 0 0 0 0 0 1 1 2 3 4 5 5 6 9 12 15 15 11 9 8 9 10 10 10 8 7 7 7 7 6 6 7 8 8 9 8 7 5 3 2 1 1 1
0 0 0 0 0 1 1 2 3 3 5 6 6 7 9 11 13 12 10 9 10 11 11 11 11 11 10 9 10 9 8 8 7 7 6 5 5 4 3 2 1 1 1 1
1 1 1 1 1 1 3 3 3 4 5 7 7 8 9 11 11 10 10 10 10 10 11 12 13 13 12 12 13 12 11 9 8 6 4 3 3 2 2 1 1 1 1 1
1 1 1 1 1 2 3 4 4 5 7 9 9 9 10 10 10 10 10 9 9 9 9 10 13 14 13 12 13 14 12 10 8 5 4 3 2 2 1 1 0 0 0 0
1 1 1 2 2 3 4 5 5 7 9 11 11 10 10 10 9 9 9 8 7 8 8 9 11 12 11 10 11 11 10 9 7 5 3 3 2 1 1 0 0 0 0 0
1 1 3 4 4 5 5 5 6 8 10 11 12 12 11 9 8 7 7 6 6 6 6 7 9 9 9 8 7 7 9 9 8 5 3 2 1 1 0 0 0 0 0 0
2 3 4 4 5 6 6 6 7 9 11 12 13 13 11 9 7 6 5 5 4 4 5 6 7 7 7 7 6 6 8 9 8 5 3 1 1 0 0 0 0 0 0 0
2 3 4 4 4 5 5 5 7 10 11 12 13 13 10 8 6 5 4 4 3 4 4 5 6 6 7 7 6 6 8 9 8 5 2 1 0 0 0 0 0 0 0 0

GEFSCGP_con_maxscp_180.txt.gz
SCP
0 0 0 0 0 0 0 0 0 0 0 0 0 1 1 1 1 2 2 2 2 3 3 3 4 4 5 5 5 4 3 2 2 2 2 2 1 1 1 1 1 0 0 1
0 0 0 0 0 0 0 0 0 0 0 0 0 1 1 1 1 1 2 2 2 3 3 4 4 4 5 5 5 4 3 2 2 2 2 2 1 1 1 1 1 1 1 1
0 0 0 0 0 0 0 0 0 0 0 0 0 1 1 1 1 2 2 2 2 3 4 4 4 4 5 4 4 4 3 3 2 2 2 2 2 2 1 1 1 1 1 1
0 0 0 0 0 0 0 0 0 0 0 0 0 0 0 1 1 2 2 3 3 4 5 5 4 4 4 4 3 3 3 3 2 2 2 3 3 2 2 2 2 2 2 2
0 0 0 0 0 0 0 0 0 0 0 0 0 0 0 0 1 2 4 4 5 7 7 5 5 5 4 3 3 3 2 2 3 3 3 3 3 3 3 3 3 4 3 3
0 0 0 0 0 0 0 0 0 0 0 0 0 0 0 0 1 3 5 6 7 7 6 6 6 5 4 3 3 3 2 2 3 3 4 4 4 4 4 4 5 5 5 5
0 0 0 0 0 0 0 0 0 0 0 0 0 0 0 0 1 3 5 6 6 6 6 7 7 6 4 3 4 3 3 2 3 3 4 4 5 5 5 5 5 6 7 6
0 0 0 0 0 0 0 0 0 0 0 0 0 0 0 1 1 2 3 4 4 5 6 7 7 5 4 3 4 4 4 3 3 3 3 4 5 6 5 5 6 7 7 6
0 0 0 0 0 0 0 0 0 0 0 0 0 0 0 1 1 1 2 2 4 5 6 6 5 4 3 3 3 4 4 4 3 3 3 4 5 6 5 5 6 7 6 5
0 0 0 0 0 0 0 0 0 0 0 0 0 0 0 1 1 1 1 2 3 4 4 4 4 3 3 3 3 3 4 4 4 3 4 4 5 5 5 5 6 6 4 3
0 0 0 0 0 0 0 0 0 0 0 0 0 0 0 1 1 1 1 2 3 3 3 3 3 3 3 3 2 3 3 4 4 4 4 5 5 5 5 5 5 4 3 2
0 0 0 0 0 0 0 0 0 0 0 0 0 0 1 1 1 1 1 2 3 3 4 4 4 4 3 3 3 3 3 4 5 5 6 5 5 5 5 5 4 3 2 2
0 0 0 0 0 0 0 0 0 0 0 0 0 0 1 1 1 1 2 2 3 3 4 5 5 4 3 3 3 4 4 5 6 7 7 7 6 6 5 5 4 3 3 2
0 0 0 0 0 0 0 0 0 0 0 0 0 0 1 1 1 2 3 3 3 4 5 5 5 4 3 3 4 5 6 7 8 9 9 8 7 6 5 5 5 4 4 3
0 0 0 0 0 0 0 0 0 0 0 0 0 1 1 1 2 3 3 4 4 5 5 5 5 4 4 4 5 6 7 8 10 10 11 10 8 6 6 6 5 5 4 3
0 0 0 0 0 0 1 1 1 1 1 0 0 1 1 2 3 4 5 5 6 6 6 6 5 4 4 5 6 8 9 10 12 12 11 10 8 6 6 6 5 5 4 3
0 0 0 0 0 0 0 1 1 1 1 1 1 1 2 4 6 7 7 8 8 9 9 8 7 6 5 5 7 9 11 13 14 14 12 10 7 6 5 5 5 4 3 2
0 0 0 0 0 0 0 1 1 2 2 2 1 2 4 7 9 9 9 9 10 10 11 10 9 8 6 5 7 9 13 15 15 14 11 9 6 5 4 4 3 2 2 1
0 0 0 0 0 0 1 1 2 2 3 3 3 5 7 8 8 9 9 10 10 11 12 12 11 10 7 6 8 10 12 13 12 10 8 6 5 4 3 2 2 1 1 1
0 0 0 0 0 0 1 1 2 2 3 4 5 7 9 7 6 7 8 10 10 11 12 13 12 11 9 8 9 9 8 7 7 6 5 4 3 3 2 2 1 1 1 0
0 0 0 0 0 0 1 2 2 2 3 6 8 9 8 7 6 6 8 9 10 11 12 12 13 13 12 10 8 7 5 4 4 4 4 3 3 2 2 1 1 1 1 0
0 0 0 0 0 1 1 2 2 2 5 8 9 9 8 7 7 7 7 8 9 10 12 13 13 13 13 11 8 6 5 4 4 5 4 4 3 3 2 2 1 1 0 0
0 0 0 1 1 1 2 2 3 4 7 9 9 8 7 7 6 6 6 6 7 9 11 13 13 13 13 11 8 6 4 4 4 5 5 4 4 4 3 2 1 0 0 0
1 1 1 1 2 2 3 3 4 6 7 8 8 8 7 7 6 5 5 4 5 6 9 11 12 13 13 11 8 5 4 4 4 4 5 5 4 3 2 1 1 0 0 0
1 1 2 2 2 3 3 4 5 6 7 8 8 8 8 8 6 5 4 4 3 4 6 8 10 12 12 11 9 6 4 4 4 4 5 5 4 3 1 1 0 0 0 0
2 2 2 2 2 3 4 4 5 6 7 8 9 9 9 8 7 5 4 4 3 3 4 6 8 11 11 11 10 8 6 4 4 4 5 5 4 2 1 0 0 0 0 0

GEFSCGP_con_maxscp_186.txt.gz
SCP
0 0 0 0 0 0 0 0 0 0 0 0 0 0 1 1 1 2 2 3 4 4 3 2 2 2 2 2 3 3 3 4 5 5 4 3 2 2 1 1 1 1 1 1
0 0 0 0 0 0 0 0 0 0 0 0 0 0 1 1 2 2 3 3 3 3 3 2 2 2 2 3 3 3 3 4 5 5 4 3 3 2 2 1 1 1 1 1
0 0 0 0 0 0 0 0 0 0 0 0 0 1 1 1 2 3 3 3 2 2 2 2 2 2 3 3 3 3 3 4 4 4 4 3 3 3 2 1 1 1 1 1
0 0 0 0 0 0 0 0 0 0 0 0 0 0 1 1 2 3 4 3 2 2 2 2 2 3 3 3 3 3 3 3 3 3 3 3 2 2 2 1 1 1 1 1
0 0 0 0 0 0 0 0 0 0 0 0 0 0 0 1 1 2 3 3 2 2 2 2 3 3 3 3 2 3 3 4 4 3 3 2 2 1 1 1 1 1 1 1
0 0 0 0 0 0 0 0 0 0 0 0 0 0 0 0 1 2 3 3 2 2 2 2 3 4 3 3 2 3 3 4 4 3 3 2 2 1 1 1 1 1 1 1
0 0 0 0 0 0 0 0 0 0 0 0 0 0 0 0 1 1 2 2 2 2 2 3 4 3 3 3 2 3 3 3 3 3 2 2 2 1 1 1 1 1 1 1
0 0 0 0 0 0 0 0 0 0 0 0 0 0 0 1 1 1 1 2 2 2 3 3 3 3 3 3 3 3 3 3 3 2 2 2 2 2 1 1 1 1 1 1
0 0 0 0 0 0 0 0 0 0 0 0 0 0 0 1 1 1 1 2 2 3 3 4 3 3 3 3 3 3 3 3 3 2 2 2 2 2 2 1 1 1 1 1
0 0 0 0 0 0 0 0 0 0 0 0 0 0 0 1 1 1 1 2 3 3 4 3 3 3 4 3 3 3 3 3 3 3 2 2 2 2 2 2 2 2 2 2
0 0 0 0 0 0 0 0 0 0 0 0 0 0 0 1 1 1 1 2 3 3 3 3 4 4 5 4 3 3 3 3 3 3 3 2 2 3 3 3 3 3 2 2
0 0 0 0 0 0 0 0 0 0 0 0 0 0 1 1 1 1 1 2 3 4 4 4 5 5 5 4 3 3 3 3 3 3 3 3 3 3 4 5 5 4 3 2
0 0 0 0 0 0 0 0 0 0 0 0 0 0 1 1 1 1 1 3 4 5 4 5 5 5 5 4 4 3 3 3 4 4 4 3 3 4 5 6 7 7 5 3
0 0 0 0 0 0 0 0 0 0 0 0 0 0 1 1 1 2 2 3 4 5 5 5 5 5 5 5 5 4 4 4 4 4 4 4 4 4 5 6 7 7 5 4
0 0 0 0 0 0 0 0 0 0 0 0 0 0 1 1 2 2 3 3 4 4 5 5 5 5 5 6 6 5 5 5 5 5 5 5 5 5 5 5 5 6 5 4
0 0 0 0 0 0 0 0 0 0 0 0 0 1 1 1 2 2 3 4 4 3 4 5 5 5 5 6 6 6 6 6 6 6 6 7 7 5 4 4 4 4 4 4
0 0 0 0 0 0 0 0 0 0 0 1 1 1 2 2 2 3 3 4 4 4 4 5 6 6 6 5 5 5 5 6 6 7 7 7 6 6 5 5 5 4 4 4
0 0 0 0 0 0 0 1 1 1 1 1 2 2 3 3 3 3 3 4 4 5 5 6 6 6 6 5 5 5 5 6 7 8 8 7 7 8 8 7 5 5 4 4
0 0 0 0 0 0 1 1 1 1 1 2 2 3 4 4 3 3 3 4 5 5 6 7 7 7 7 6 6 6 6 6 7 8 8 8 8 8 8 7 6 5 4 3
0 0 0 0 0 0 1 1 1 1 2 2 2 3 3 4 4 3 4 5 6 6 7 8 8 8 8 7 7 6 6 6 6 6 7 7 8 8 7 6 5 5 4 3
1 1 0 0 0 1 1 1 1 2 2 3 3 3 3 4 4 4 5 7 8 8 9 9 8 8 7 7 7 6 6 5 5 5 5 6 7 7 6 5 5 5 4 4
1 1 1 1 1 1 2 2 2 3 3 4 4 4 4 5 5 6 7 8 10 10 11 11 10 8 7 6 6 6 6 5 5 6 6 6 7 7 6 5 5 4 4 4
1 2 1 1 1 2 2 3 4 4 4 5 5 5 5 6 6 6 7 9 10 10 10 11 10 8 7 6 5 6 6 5 6 6 6 6 6 6 6 6 5 4 4 4
2 2 2 2 2 3 4 4 5 5 5 5 6 6 5 5 6 6 7 8 8 8 9 9 9 8 7 6 5 5 5 5 6 7 7 7 7 7 7 7 6 5 5 4
2 2 3 3 4 5 5 5 5 5 5 5 6 5 5 5 5 6 6 7 8 8 9 8 8 8 8 6 5 5 5 5 5 6 7 7 7 7 7 7 7 5 4 4
2 2 3 4 5 6 6 6 5 6 6 5 5 5 4 4 4 5 6 7 8 9 10 9 8 8 8 7 6 5 4 4 5 6 6 7 6 6 7 8 6 4 3 2

GEFSCGP_con_maxscp_192.txt.gz
SCP
0 0 0 0 0 0 0 0 0 0 0 0 0 1 1 2 4 4 4 4 7 10 11 10 9 6 5 4 4 4 4 5 5 5 5 5 3 2 2 3 3 2 2 2
0 0 0 0 0 0 0 0 0 0 0 0 0 1 1 3 5 5 5 5 7 9 9 9 8 6 5 5 5 5 5 5 4 4 4 4 3 3 3 3 3 3 3 2
0 0 0 0 0 0 0 0 0 0 0 0 0 1 2 4 5 5 4 5 7 8 7 7 8 7 6 6 6 6 6 6 5 4 4 3 3 3 3 3 3 3 3 2
0 0 0 0 0 0 0 0 0 0 0 0 1 1 2 3 3 3 3 4 7 8 7 7 8 8 7 7 7 7 7 7 6 6 5 5 4 3 3 2 2 2 2 2
0 0 0 0 0 0 0 0 0 0 0 0 0 1 2 2 2 2 2 3 6 8 8 8 8 7 7 6 6 6 7 8 8 7 7 6 5 4 3 3 2 2 2 2
0 0 0 0 0 0 0 0 0 0 0 0 0 1 1 2 2 2 2 2 5 6 7 9 10 8 6 5 5 6 8 10 9 8 8 8 6 5 3 3 3 2 2 2
0 0 0 0 0 0 0 0 0 0 0 0 0 1 1 1 2 2 2 2 4 6 8 11 11 8 5 5 5 6 9 11 10 9 8 8 7 5 4 3 3 2 3 3
0 0 0 0 0 0 0 0 0 0 0 0 1 1 1 1 2 2 2 2 4 6 9 11 10 7 5 5 6 7 10 11 11 9 8 7 6 5 4 4 4 3 3 4
0 0 0 0 0 0 0 0 0 0 0 1 1 2 2 2 1 1 2 3 4 6 8 9 8 5 5 6 7 8 10 11 10 8 7 6 6 5 4 4 5 5 5 4
0 0 0 0 0 0 0 0 0 0 0 0 1 1 2 1 1 1 2 4 5 5 6 6 6 5 5 6 7 8 10 11 9 7 6 6 6 6 5 5 6 6 6 5
0 0 0 0 0 0 0 0 0 0 0 0 1 1 1 1 1 1 2 4 6 6 5 5 4 5 6 7 7 8 10 11 9 7 7 6 6 6 6 6 7 7 7 7
0 0 0 0 0 0 0 0 0 0 0 0 1 1 1 1 1 1 3 5 6 6 5 4 4 5 6 7 7 8 9 10 9 7 7 7 7 7 6 7 8 10 10 9
0 0 0 0 0 0 0 0 0 0 0 0 1 1 2 2 2 2 3 5 6 6 5 5 6 6 6 6 7 8 8 9 8 7 7 8 8 8 6 7 9 10 10 9
0 0 0 0 0 0 0 0 0 0 0 0 1 2 3 3 3 3 4 6 6 6 6 7 7 7 7 7 8 8 8 8 8 8 8 9 9 8 7 7 8 9 8 8
0 0 0 0 0 0 0 0 0 0 0 0 1 3 4 3 3 4 5 6 7 7 7 7 7 8 8 8 8 9 9 9 9 9 9 9 9 8 7 7 7 7 7 7
1 1 0 0 0 0 0 0 0 0 0 1 3 4 5 5 5 7 8 7 7 7 7 7 7 8 8 8 8 10 11 12 13 12 10 9 8 7 7 7 8 9 10 10
1 2 1 0 0 0 0 0 0 0 1 2 4 6 8 8 9 9 9 8 7 7 7 7 8 8 8 8 8 10 12 14 14 13 11 9 8 7 9 10 12 13 14 14
2 2 1 1 0 0 0 0 1 1 2 3 5 7 10 12 12 11 10 9 9 9 8 9 10 10 9 8 9 10 12 13 13 12 10 9 8 9 11 13 15 16 15 14
2 2 1 1 1 0 1 1 1 1 2 3 4 6 9 10 11 11 10 11 11 11 11 11 11 11 11 10 10 10 11 11 10 9 9 9 9 9 10 12 13 13 13 12
1 2 1 1 1 0 1 2 2 2 2 3 4 6 8 9 9 9 10 11 11 11 13 15 16 16 16 15 13 11 10 9 9 9 8 8 9 9 9 10 11 11 11 11
1 1 1 1 1 1 2 3 4 4 5 7 7 9 10 11 10 9 9 10 11 11 14 18 21 22 21 17 13 11 10 9 9 9 9 9 9 8 9 10 11 12 11 10
1 1 1 1 2 3 5 5 6 8 11 12 11 11 12 12 11 9 10 11 12 12 13 16 20 21 18 15 12 11 10 9 8 8 9 9 8 8 9 11 12 12 11 9
2 2 3 3 4 6 7 7 8 11 13 12 11 11 13 12 11 10 10 11 12 13 12 13 15 15 14 12 11 10 9 8 7 6 7 8 8 9 10 11 11 11 10 9
3 4 6 6 6 8 9 9 10 11 11 10 9 9 11 12 11 10 9 9 10 11 11 11 11 12 12 11 10 8 7 6 6 5 6 6 7 8 9 10 10 9 9 8
5 8 9 8 8 9 11 12 11 10 9 8 7 7 8 9 10 11 11 10 10 10 9 9 10 11 11 11 9 7 6 6 6 6 6 6 6 7 9 9 9 8 7 6
6 10 11 9 8 11 13 13 12 10 8 7 7 6 6 7 10 13 14 13 12 10 9 9 10 11 12 11 9 6 5 5 6 6 6 6 6 7 8 9 8 6 5 4

GEFSCGP_con_maxscp_198.txt.gz
SCP
0 0 0 0 0 0 0 0 0 0 1 1 2 3 4 5 4 3 5 8 10 9 8 9 11 14 18 18 15 13 13 13 10 9 9 10 11 11 11 9 6 5 4 4
0 0 0 0 0 0 0 0 0 1 1 2 2 3 5 6 5 4 5 8 10 10 9 11 12 15 19 19 16 14 15 16 14 12 11 10 11 11 11 10 7 6 5 4
0 0 0 0 0 0 0 0 0 1 2 2 2 3 5 5 4 3 5 7 9 9 9 12 15 16 19 20 17 16 18 20 18 15 12 10 9 9 10 9 8 7 6 5
0 0 0 0 0 0 0 0 0 1 1 1 1 2 3 3 2 3 5 7 8 8 9 12 15 16 17 19 18 17 18 20 19 14 10 8 7 7 7 7 7 6 5 4
0 0 0 0 0 0 0 0 0 0 0 0 1 1 1 1 2 4 6 7 7 6 8 13 16 17 17 19 19 19 20 21 19 12 8 7 7 6 6 6 6 5 4 3
0 0 0 0 0 0 0 0 0 0 0 0 0 1 1 1 1 4 7 8 8 8 10 13 16 18 19 20 21 23 23 24 21 14 8 8 7 6 5 5 4 4 4 4
0 0 0 0 0 0 0 0 0 0 0 0 0 0 1 1 1 3 6 9 11 12 13 14 17 19 21 22 23 25 25 25 23 16 10 8 6 5 4 4 4 5 7 8
0 0 0 0 0 0 0 0 0 0 0 0 0 0 1 1 1 2 4 8 12 16 17 18 19 20 21 21 22 24 25 24 22 17 10 7 5 4 3 4 5 6 9 11
0 0 0 0 0 0 0 0 0 0 0 0 0 1 1 1 1 2 4 8 13 18 22 24 24 23 21 21 21 23 23 23 20 16 11 7 6 5 5 6 5 7 10 11
0 0 0 0 0 0 0 0 0 0 0 0 0 1 1 1 2 2 3 7 12 18 24 30 31 29 26 23 23 23 23 23 20 15 11 9 7 7 8 8 7 8 9 10
0 0 0 0 0 0 0 0 0 0 0 0 0 1 1 1 2 2 3 5 8 14 22 30 35 35 33 30 28 26 25 24 21 16 12 10 9 9 9 8 8 8 8 7
0 0 0 0 0 0 0 0 0 0 0 0 0 1 1 2 3 4 4 4 5 9 16 25 32 37 39 39 36 32 29 26 21 16 12 10 10 9 9 9 8 7 6 5
0 0 0 0 0 0 0 0 0 0 0 0 0 1 2 3 4 5 6 5 5 6 10 18 27 36 43 46 45 40 35 30 23 17 13 10 10 10 10 10 8 6 5 5
0 0 0 0 0 0 0 0 0 0 0 0 1 1 2 4 5 6 6 6 6 6 8 14 23 32 41 46 48 46 42 36 28 20 15 12 11 10 10 10 8 6 5 5
0 0 0 0 0 0 0 0 0 0 0 1 2 3 3 4 5 6 7 8 9 9 8 12 20 27 34 41 45 46 45 40 33 25 20 15 12 11 9 8 7 6 5 5
0 0 0 0 0 0 0 0 1 1 1 2 4 5 6 6 7 8 7 9 14 15 13 14 18 21 27 34 40 42 42 40 35 31 26 20 14 10 8 7 6 6 6 6
0 0 0 0 0 0 0 1 2 2 3 3 4 6 8 9 9 8 8 10 15 19 20 19 17 15 20 28 34 36 37 38 38 35 30 22 15 11 8 7 7 6 6 6
1 1 1 0 0 0 1 2 3 3 3 4 5 7 9 10 10 9 8 8 12 19 27 26 18 12 15 24 30 31 32 35 39 37 30 20 14 11 9 8 8 7 7 6
0 1 0 0 0 1 1 2 3 3 4 5 6 8 9 10 12 12 10 9 11 18 29 32 22 12 14 22 28 29 28 31 36 34 25 16 11 9 8 8 8 8 7 7
0 0 0 0 0 1 2 4 4 3 4 5 7 9 10 11 12 12 13 13 14 19 29 33 25 15 14 21 27 28 27 27 30 27 19 11 9 8 7 7 8 8 8 7
0 0 0 0 0 1 6 13 15 10 7 7 9 12 13 13 14 15 16 17 19 22 28 29 23 16 14 20 26 29 28 25 22 18 12 8 6 6 6 7 7 7 7 6
1 0 0 0 1 1 11 26 30 25 20 15 14 15 16 18 20 21 20 21 25 28 27 24 20 16 16 20 26 29 27 21 15 10 6 5 5 5 6 6 6 6 6 6
1 1 2 2 3 5 16 33 44 50 48 36 25 24 32 44 49 43 35 35 38 34 27 24 23 22 21 22 25 26 22 15 9 5 4 3 4 5 6 6 5 6 6 6
2 3 6 8 10 17 29 38 47 62 73 66 49 39 55 85 96 80 65 61 57 45 37 38 39 35 29 25 24 22 17 11 6 4 3 3 3 4 5 6 6 6 6 6
2 4 8 13 14 23 34 34 32 48 69 76 71 68 87 126 138 119 101 93 84 71 62 63 62 51 36 27 22 18 14 10 6 4 3 2 2 2 4 5 6 6 5 5
3 5 9 11 12 17 23 21 19 33 51 64 78 93 121 154 163 143 124 116 109 96 84 80 76 59 40 28 21 16 12 9 6 4 3 3 2 2 3 4 6 6 5 4

GEFSCGP_con_maxscp_204.txt.gz
SCP
0 0 0 0 0 0 0 0 0 0 1 1 1 2 1 1 2 3 3 4 4 5 7 6 3 2 1 1 1 2 2 2 2 2 1 1 1 1 1 0 0 0 0 0
0 0 0 0 0 0 0 0 0 0 1 1 1 1 1 1 1 2 3 3 4 6 7 6 4 2 1 1 1 2 2 2 2 2 2 1 1 1 1 0 0 0 0 0
0 0 0 0 0 0 0 0 0 1 1 1 1 0 0 0 1 2 3 3 4 5 7 6 4 2 1 1 2 2 2 2 2 2 2 2 1 1 1 1 0 0 0 1
0 0 0 0 0 0 0 0 0 1 1 1 0 0 0 0 1 2 3 4 4 5 6 5 3 2 2 2 2 2 2 1 1 2 3 3 2 1 1 1 1 0 1 1
0 0 0 0 0 0 0 0 0 0 0 0 0 0 0 0 1 2 3 4 4 4 5 4 3 2 2 2 2 2 1 1 1 2 2 3 3 2 1 1 1 0 0 0
0 0 0 0 0 0 0 0 0 0 0 0 0 0 0 0 0 1 2 3 3 3 4 3 3 2 2 2 2 2 1 1 2 2 2 2 3 2 2 1 1 1 0 0
0 0 0 0 0 0 0 0 0 0 0 0 0 0 0 0 0 1 1 2 2 2 3 3 2 2 2 2 2 2 2 2 2 2 2 2 2 3 2 2 1 1 1 1
0 0 0 0 0 0 0 0 0 0 0 0 0 0 0 0 0 0 1 1 1 2 2 2 2 2 2 2 2 2 2 2 2 2 2 2 2 2 2 2 2 1 1 1
0 0 0 0 0 0 0 0 0 0 0 0 0 0 0 0 0 0 1 1 1 2 2 2 1 1 2 2 2 2 2 2 2 2 3 2 2 2 2 2 2 2 2 2
0 0 0 0 0 0 0 0 0 0 0 0 0 0 0 0 0 1 1 1 2 2 2 2 2 2 2 2 2 2 2 2 3 3 3 3 2 3 3 2 2 2 3 3
0 0 0 0 0 0 0 0 0 0 0 0 0 0 0 0 1 1 1 1 1 2 2 2 2 2 2 2 2 2 2 2 3 3 3 3 3 3 3 3 3 3 3 4
0 0 0 0 0 0 0 0 0 0 0 0 0 0 0 0 1 1 1 1 1 1 2 2 2 2 2 3 3 3 3 3 3 3 3 3 3 3 3 3 3 3 4 4
0 0 0 0 0 0 0 0 0 0 0 0 0 0 0 1 1 1 1 1 1 1 2 2 3 3 3 3 3 3 3 3 3 3 3 4 4 4 4 3 3 3 3 4
0 0 0 0 0 0 0 0 0 0 0 0 0 0 0 1 1 1 1 1 2 2 2 3 4 4 3 3 3 3 4 4 5 5 5 5 6 6 6 5 4 3 3 3
0 0 0 0 0 0 1 1 1 1 1 1 1 0 1 1 2 2 2 2 2 3 3 4 4 4 3 3 4 4 4 5 5 6 6 6 7 8 8 7 5 4 4 4
0 0 0 0 0 1 1 1 1 1 1 1 1 1 2 3 3 3 3 3 3 3 4 4 4 3 3 4 5 5 5 5 5 5 6 5 6 7 9 9 8 6 5 5
0 0 0 0 0 1 1 1 1 1 2 2 2 2 3 4 4 4 4 3 3 3 4 4 4 3 2 4 5 6 6 5 5 5 5 4 5 7 9 10 10 9 7 6
0 0 0 0 0 0 1 1 1 1 1 2 2 2 4 5 5 5 4 4 4 4 4 4 4 3 3 4 5 5 5 5 5 5 5 4 5 7 10 12 13 12 11 9
0 0 0 0 0 1 1 1 2 1 2 2 2 3 5 5 5 4 4 5 5 5 5 5 4 4 4 4 5 5 5 5 5 5 5 4 5 7 10 13 14 14 13 11
0 0 0 0 0 0 1 2 2 2 2 2 3 4 6 5 3 3 5 6 7 6 6 5 5 5 5 5 6 7 7 6 5 5 5 4 4 5 7 10 11 12 12 11
0 0 0 0 0 0 1 2 2 1 1 2 3 5 6 6 4 5 7 9 8 7 6 6 6 6 6 8 10 10 9 6 5 5 4 4 3 3 4 5 5 7 8 8
0 0 0 0 0 0 1 2 2 1 2 2 3 5 7 7 7 8 10 10 9 8 7 7 8 9 10 12 14 13 9 5 5 5 4 4 3 2 2 2 2 3 4 4
0 0 0 1 1 1 1 2 2 2 2 3 4 5 6 7 8 10 11 11 10 10 10 10 10 11 12 13 14 13 9 5 5 5 4 3 2 1 1 1 1 2 2 2
1 1 1 1 2 2 3 3 3 3 4 4 4 5 7 9 10 11 12 12 12 13 12 12 12 11 10 10 10 9 6 4 4 4 3 2 2 1 1 1 1 1 1 1
1 1 1 2 2 3 4 4 4 6 6 6 6 6 7 9 10 11 12 13 13 13 14 14 12 10 7 6 5 5 4 4 3 3 2 1 1 1 1 1 1 1 1 1
1 1 1 1 2 3 3 3 5 7 8 7 7 6 7 8 8 9 11 12 12 13 14 14 12 9 6 4 4 4 5 4 3 2 1 1 1 1 2 1 1 1 1 1

GEFSCGP_con_maxscp_210.txt.gz
SCP
0 0 0 0 0 0 0 0 0 1 0 0 1 1 1 2 2 2 2 2 2 2 2 2 2 2 1 1 2 2 2 2 2 2 2 2 1 1 1 1 1 1 1 1
0 0 0 0 0 0 0 0 0 1 0 0 1 1 1 2 2 2 2 2 2 3 3 2 2 2 1 1 1 2 2 2 2 2 2 2 1 1 1 1 1 1 1 1
0 0 0 0 0 0 0 0 0 1 1 0 0 1 1 2 2 2 1 2 2 2 2 2 2 2 2 2 2 2 2 2 2 2 2 2 2 2 2 1 1 1 1 1
0 0 0 0 0 0 0 0 0 0 0 0 0 1 1 2 2 2 2 2 3 3 2 2 2 2 2 2 2 2 2 3 3 3 2 2 2 2 2 2 2 2 2 2
0 0 0 0 0 0 0 0 0 0 0 0 0 0 1 1 2 2 2 2 3 3 3 2 2 2 2 2 2 2 2 3 3 3 3 2 2 2 2 2 2 2 2 2
0 0 0 0 0 1 1 0 0 0 0 0 0 0 1 1 1 1 2 3 4 4 3 2 1 1 2 2 2 2 2 2 3 3 3 2 3 3 2 2 2 2 2 1
0 0 0 0 1 1 0 0 0 0 0 0 0 0 1 1 1 1 2 3 3 3 2 2 1 1 2 2 2 2 2 2 2 2 2 2 2 2 2 2 2 2 2 1
0 0 0 0 0 0 0 0 0 0 0 0 0 0 1 1 1 1 1 2 2 2 2 1 1 1 2 2 2 3 3 3 3 2 2 2 2 2 2 2 2 2 1 1
0 0 0 0 0 0 0 0 0 0 0 0 0 0 1 1 1 1 1 2 2 2 2 2 2 2 2 2 2 3 4 5 5 3 2 2 2 2 2 2 2 2 2 2
0 0 0 0 0 0 0 0 0 0 0 0 0 0 1 1 1 1 2 2 2 2 2 2 3 3 2 2 3 3 5 6 7 5 3 3 3 2 2 2 2 2 2 3
0 0 0 0 0 0 0 0 1 1 1 0 0 0 1 1 2 2 2 2 2 2 3 4 4 4 3 3 3 4 5 7 8 7 5 4 4 4 3 3 3 4 4 3
0 0 0 0 0 0 0 0 0 1 1 0 0 0 1 1 2 3 3 3 3 3 4 5 6 5 4 4 3 4 5 7 8 7 5 4 5 6 6 4 4 5 4 3
0 0 0 0 0 0 0 0 0 0 0 0 0 1 1 2 2 3 3 3 3 3 5 6 6 5 5 4 4 4 6 7 7 6 5 4 5 6 6 5 5 5 4 4
0 0 0 0 0 0 0 0 0 0 0 0 0 1 1 2 2 3 2 2 2 3 4 5 5 5 5 4 4 4 6 7 7 7 6 5 4 4 5 5 5 5 4 4
0 0 0 0 0 0 0 0 0 0 0 0 1 1 1 2 2 2 2 2 2 3 4 4 5 5 5 5 5 5 5 6 6 7 6 5 5 4 4 5 5 5 5 4
0 0 0 0 0 0 0 1 1 1 1 1 1 1 2 2 2 2 2 3 3 3 4 5 6 7 7 7 7 5 5 4 5 5 6 6 6 5 5 5 6 6 6 6
0 1 0 0 0 0 0 1 1 1 1 2 2 2 2 3 3 3 3 3 3 4 4 6 7 8 8 8 7 6 5 4 4 5 5 7 7 7 6 6 7 7 7 7
0 0 0 0 0 0 1 1 1 1 2 2 2 2 2 3 3 3 3 3 3 4 6 7 8 8 8 7 6 6 5 5 5 5 7 8 8 8 7 7 7 7 7 6
0 0 0 0 0 0 1 1 1 1 2 2 3 3 3 3 3 3 3 3 4 6 8 8 9 10 9 7 7 6 6 6 6 7 8 10 9 9 8 8 7 7 6 5
0 0 0 0 0 0 1 2 2 2 2 3 4 4 3 3 3 3 4 5 6 7 8 9 10 11 10 8 8 7 7 8 10 12 13 13 11 10 9 8 7 6 5 4
0 0 0 0 0 1 1 2 2 3 3 4 4 4 4 4 4 4 4 5 6 7 7 7 9 10 10 9 8 7 8 11 15 18 18 15 12 10 8 7 6 6 5 4
1 1 0 0 1 1 2 2 3 4 5 5 5 4 3 4 4 4 4 5 6 6 7 7 8 8 9 9 8 8 10 13 17 18 17 14 11 9 7 6 6 6 5 4
1 1 1 1 1 2 2 3 4 5 6 6 5 5 4 3 4 4 5 5 6 7 8 9 9 9 10 9 9 10 12 16 19 17 14 12 9 8 7 6 5 5 5 4
2 2 2 2 2 2 3 3 4 4 5 6 7 7 6 6 6 6 6 5 6 8 10 11 10 10 10 10 9 10 16 22 23 20 15 11 8 7 6 6 5 5 5 5
2 2 2 2 2 3 3 4 4 4 5 7 8 9 9 9 9 9 8 6 7 9 11 12 11 10 10 10 9 11 17 23 23 20 15 10 7 6 6 5 5 4 4 4
2 2 2 2 2 3 4 4 4 4 5 7 9 10 11 11 10 9 8 7 7 9 12 13 11 10 10 10 9 10 16 21 21 18 14 9 6 5 5 5 4 3 3 3

GEFSCGP_con_maxscp_216.txt.gz
SCP
0 0 0 0 0 0 0 0 0 0 0 0 1 1 1 1 1 2 2 3 5 6 5 4 3 3 3 3 3 3 3 4 4 3 3 3 3 3 2 3 3 2 2 2
0 0 0 0 0 0 0 0 0 0 0 0 0 1 1 1 1 1 2 3 5 6 5 4 4 3 3 3 3 3 4 4 4 4 3 3 3 3 2 3 4 3 3 2
0 0 0 0 0 0 0 0 0 0 0 0 0 1 1 1 1 1 2 3 4 6 5 4 4 3 3 3 3 3 4 4 4 4 4 4 4 3 3 4 5 4 3 3
0 0 0 0 0 0 0 0 0 0 0 0 0 1 1 2 1 1 1 2 4 5 5 4 3 3 3 4 3 3 3 4 4 4 4 4 4 4 4 4 5 4 4 3
0 0 0 0 0 0 0 0 0 0 0 0 0 1 1 1 1 1 1 2 3 4 4 3 3 3 3 3 3 3 3 3 3 3 3 4 4 5 4 4 4 4 4 3
0 0 0 0 0 0 0 0 0 0 0 0 1 1 1 1 1 1 1 2 3 3 3 3 3 3 3 3 3 4 4 4 3 3 3 4 4 5 5 4 5 4 3 3
0 0 0 0 0 0 0 0 0 0 0 0 1 1 1 1 1 1 1 2 3 3 3 3 3 3 3 3 3 4 5 5 4 4 4 4 4 5 5 5 5 5 4 3
0 0 0 0 0 0 0 0 0 0 0 1 1 1 1 1 1 1 1 2 3 3 3 3 3 3 3 3 3 4 5 6 5 5 4 4 4 4 4 4 5 5 4 3
0 0 0 0 0 0 0 0 0 0 0 1 1 1 1 1 1 1 2 2 3 3 3 3 4 3 3 3 3 4 5 6 6 6 5 4 3 3 3 4 4 5 5 4
0 0 0 0 0 0 0 0 0 0 0 0 1 1 2 1 1 1 2 3 3 3 3 4 4 4 3 4 4 5 7 8 7 6 6 5 4 3 3 3 4 5 5 5
0 0 0 0 0 0 0 0 0 0 0 0 1 1 1 1 2 2 4 5 6 6 5 6 6 5 5 5 5 6 8 8 8 7 7 6 6 5 4 4 4 5 6 7
0 0 0 0 0 0 0 0 0 0 0 0 1 1 1 1 2 4 6 7 8 8 7 8 9 8 7 6 6 7 8 8 8 7 7 7 6 5 5 4 5 6 8 9
0 0 0 0 0 0 0 0 0 0 0 0 1 2 2 2 3 5 6 7 8 8 8 9 10 10 9 8 7 8 9 9 8 7 7 7 6 6 5 5 6 8 9 10
0 0 0 0 0 0 0 0 0 0 0 1 1 2 3 2 2 4 5 6 6 7 7 7 9 9 10 9 8 9 11 11 10 9 7 7 6 6 6 6 7 9 10 11
0 0 0 0 0 0 0 0 0 0 0 1 2 3 3 3 4 4 4 5 5 6 6 6 7 8 9 9 10 12 15 17 15 11 8 7 8 7 6 6 8 10 12 12
0 0 0 0 0 0 0 0 0 0 1 1 3 4 5 5 5 5 4 5 5 5 5 6 7 8 10 12 14 17 21 21 18 12 8 8 8 8 7 8 9 12 13 13
1 1 1 0 0 0 0 0 0 1 2 3 4 5 7 7 6 5 5 6 6 6 5 6 7 10 12 16 19 21 22 20 15 10 8 8 8 9 9 10 11 12 13 13
1 1 1 1 1 1 0 0 1 2 3 4 5 6 6 6 6 5 6 7 7 6 6 6 8 10 14 17 19 20 18 14 11 9 9 10 10 10 10 11 12 13 14 14
2 1 1 1 1 1 1 1 1 2 3 5 5 5 5 6 5 5 5 6 6 6 7 7 8 11 13 15 16 15 13 11 10 10 11 12 12 12 12 13 14 14 15 15
1 1 1 1 1 1 1 1 1 2 4 6 7 7 6 6 5 5 6 6 6 7 8 8 9 11 13 13 14 13 11 10 10 10 11 14 15 15 16 16 16 16 16 16
1 1 1 1 1 1 2 2 2 3 5 7 8 8 8 7 7 7 6 6 7 7 8 8 9 11 13 13 14 14 12 12 11 11 12 15 16 18 18 19 18 18 17 18
1 1 1 1 2 3 4 4 5 7 7 7 8 9 10 9 8 7 6 6 7 7 8 9 10 10 12 13 15 15 15 15 15 15 15 16 17 18 21 22 22 20 18 18
2 2 2 2 3 4 6 6 7 9 8 7 8 9 10 9 8 7 6 7 7 8 9 10 11 10 11 13 15 17 17 18 18 18 18 17 17 19 21 24 23 20 17 16
2 2 2 3 4 4 4 5 6 6 6 6 7 7 8 8 8 7 8 9 9 11 13 13 12 11 11 12 13 16 18 20 19 19 19 18 17 18 20 21 21 18 15 14
2 2 2 4 5 4 3 3 3 3 4 5 5 5 5 6 7 8 10 12 13 14 16 16 13 11 11 12 11 13 17 19 18 17 16 15 15 15 16 16 15 13 11 10
2 2 2 4 6 6 4 3 2 2 4 5 5 4 4 5 6 8 11 13 15 17 18 17 14 11 11 11 11 11 14 16 16 15 13 12 12 13 13 12 10 8 7 7

GEFSCGP_con_maxscp_222.txt.gz
SCP
0 0 0 0 0 0 0 0 0 1 1 1 1 1 2 4 5 4 5 7 6 4 2 2 3 3 3 2 2 2 2 1 1 1 1 1 1 1 1 1 1 1 1 1
0 0 0 0 0 0 0 0 1 1 1 1 1 2 3 4 4 4 5 6 5 3 2 2 3 3 3 3 2 2 2 1 1 1 1 1 1 1 1 1 1 1 1 2
0 0 0 0 0 0 0 0 1 1 1 1 1 1 3 4 4 3 4 5 4 2 2 2 3 3 3 3 2 2 2 2 1 1 1 1 1 1 1 1 1 1 2 2
0 0 0 0 0 0 0 0 0 0 0 1 1 1 2 3 3 3 3 3 3 2 2 2 2 3 3 3 2 2 2 2 2 1 1 1 1 2 1 1 1 2 2 2
0 0 0 0 0 0 0 0 0 0 0 0 0 0 1 2 2 2 3 3 3 2 2 2 2 2 2 2 2 2 2 2 2 2 2 2 2 1 1 2 2 2 2 2
0 0 0 0 0 0 0 0 0 0 0 0 0 0 0 1 2 2 3 3 3 2 2 2 2 2 2 2 2 2 2 2 2 2 2 2 2 2 2 2 2 2 2 2
0 0 0 0 0 0 0 0 0 0 0 1 1 0 0 1 2 3 3 3 3 2 2 2 1 1 2 2 2 2 2 2 2 2 2 2 2 2 2 2 2 2 2 2
0 0 0 0 0 0 0 0 0 0 0 1 1 1 1 1 2 3 4 4 3 2 2 2 1 1 2 2 2 3 3 2 2 2 2 2 2 1 2 2 2 2 2 2
0 0 0 0 0 0 0 0 0 0 1 1 2 2 1 2 2 3 3 3 2 2 2 2 1 1 2 2 3 3 3 3 3 3 2 2 1 2 2 2 2 2 2 2
0 0 0 0 0 0 0 0 0 0 0 1 2 2 1 1 2 2 2 2 2 2 2 2 1 2 2 3 3 4 4 3 3 3 2 2 2 2 2 1 1 1 1 1
0 0 0 0 0 0 0 0 0 0 0 1 1 2 2 2 3 3 2 2 2 2 2 2 2 2 3 2 3 3 4 4 3 3 3 2 2 2 2 1 1 1 1 2
0 0 0 0 0 0 0 0 0 0 0 1 1 2 2 3 4 4 4 5 7 7 5 4 3 3 3 3 3 4 5 5 4 4 3 3 3 2 2 2 1 1 2 2
0 0 0 0 0 0 0 0 0 0 0 1 1 2 2 3 4 4 6 10 13 13 9 5 4 3 3 4 5 6 6 5 4 4 4 4 4 3 3 2 2 2 2 2
0 0 0 0 0 0 0 0 0 0 0 1 1 2 2 2 2 3 7 11 12 12 8 4 3 3 4 6 8 8 7 6 6 6 6 6 5 4 3 3 2 2 3 3
0 0 0 0 0 0 0 1 1 1 1 1 2 2 2 2 2 3 6 7 7 6 4 3 3 3 5 7 9 9 8 8 9 9 9 8 6 5 4 4 3 3 4 4
0 0 0 0 0 0 1 1 1 1 1 2 2 3 3 3 4 4 5 6 7 6 5 4 4 4 5 7 8 8 10 13 14 13 11 10 8 6 6 6 5 5 5 6
0 0 0 0 1 1 1 1 1 2 2 3 4 4 4 5 5 6 6 7 8 9 9 8 7 6 6 6 7 10 15 19 20 17 13 10 8 7 8 8 9 9 9 8
0 0 0 0 1 1 1 1 2 3 4 5 6 6 6 6 6 6 6 7 8 9 10 11 11 9 8 7 9 13 19 22 21 16 12 11 10 9 9 11 12 12 12 11
0 0 1 1 1 1 1 2 2 3 4 5 6 6 6 6 7 7 6 6 6 7 9 12 12 12 10 10 12 15 17 17 15 13 12 12 11 10 9 11 13 14 13 12
0 1 1 1 1 1 3 4 3 3 4 4 4 4 5 6 7 8 8 7 7 7 8 10 10 11 10 10 11 12 12 10 9 10 12 13 12 11 10 11 14 15 15 14
1 1 1 1 1 2 4 5 4 4 4 4 4 5 6 7 9 10 10 9 8 8 8 8 8 8 8 7 8 8 8 7 7 8 11 13 13 12 11 13 15 15 14 15
1 1 1 1 1 1 3 4 4 4 4 5 6 7 8 10 11 12 12 11 10 9 8 8 7 7 6 6 5 5 6 6 6 7 10 13 14 14 15 15 15 13 13 13
1 1 1 1 1 1 2 2 3 4 5 6 8 10 11 13 14 13 12 11 11 10 9 8 7 7 6 6 5 4 5 6 6 7 9 12 16 18 19 17 15 14 14 13
1 1 2 2 2 2 1 1 2 3 5 7 8 10 11 12 13 12 11 10 10 9 8 8 7 6 7 7 6 5 5 6 7 8 10 14 18 21 21 18 15 15 15 15
1 1 1 2 2 2 1 1 2 3 5 6 7 7 8 9 8 8 7 7 8 8 8 8 7 6 8 11 10 7 7 7 8 9 12 16 20 21 19 15 11 11 12 12
1 1 1 1 1 1 1 1 2 3 5 6 6 6 6 6 5 4 4 5 6 7 8 8 8 7 9 14 13 10 8 8 8 10 13 18 21 19 14 9 6 6 7 7

GEFSCGP_con_maxscp_228.txt.gz
SCP
0 0 0 0 0 0 0 0 0 0 0 1 1 1 2 2 3 3 3 2 1 1 1 1 1 2 2 2 1 1 1 1 1 1 1 1 1 1 0 0 0 0 1 1
0 0 0 0 0 0 0 0 0 0 0 1 1 1 1 2 2 2 2 2 1 1 1 1 2 2 2 2 1 1 1 1 1 1 1 1 1 1 0 0 0 0 1 1
0 0 0 0 0 0 0 0 0 0 0 1 1 1 1 1 1 2 2 2 1 1 1 1 2 2 2 2 1 1 1 1 1 1 1 1 1 1 1 0 0 0 0 1
0 0 0 0 0 0 0 0 0 0 0 0 1 1 1 1 1 1 1 1 1 1 1 1 2 2 2 2 1 1 1 1 1 0 1 1 1 1 1 1 0 0 0 1
0 0 0 0 0 0 0 0 0 0 0 0 0 0 0 0 0 1 1 1 1 1 1 1 1 1 1 1 1 1 1 1 1 1 1 1 1 1 1 1 1 0 0 0
0 0 0 0 0 0 0 0 0 0 0 0 0 0 0 0 0 0 1 1 1 1 1 1 1 1 1 1 1 1 1 1 1 1 1 1 1 1 1 1 1 1 1 1
0 0 0 0 0 0 0 0 0 0 0 0 0 0 0 0 0 0 1 1 1 1 1 1 1 1 1 1 1 1 1 1 1 1 1 1 1 1 1 1 1 1 1 1
0 0 0 0 0 0 0 0 0 0 0 0 0 0 0 0 0 0 1 1 1 1 1 1 1 1 1 2 2 2 2 1 1 1 1 1 1 1 1 1 1 1 1 1
0 0 0 0 0 0 0 0 0 0 0 0 0 0 0 0 0 1 1 1 1 1 1 1 1 1 1 1 2 2 2 2 2 2 2 1 1 1 1 1 1 1 1 1
0 0 0 0 0 0 0 0 0 0 0 0 0 0 0 0 1 1 1 1 1 1 1 1 1 1 1 1 2 3 3 3 3 3 3 2 2 1 1 1 1 1 1 1
0 0 0 0 0 0 0 0 0 0 0 0 0 0 0 1 1 1 1 1 1 1 1 1 1 1 1 2 2 3 3 3 4 4 4 3 3 2 2 1 1 1 1 1
0 0 0 0 0 0 0 0 0 0 0 0 0 0 0 1 1 1 1 1 1 1 1 1 1 1 1 2 2 3 3 4 5 6 6 5 4 3 2 2 1 1 1 1
0 0 0 0 0 0 0 0 0 0 0 0 0 0 1 1 1 1 1 1 1 2 2 2 1 1 1 2 2 4 4 5 7 8 8 7 5 4 2 2 1 1 1 2
0 0 0 0 0 1 1 0 0 0 0 0 0 1 1 1 1 1 1 1 2 2 2 1 1 1 2 2 3 4 5 6 7 9 8 6 4 3 3 2 2 2 2 2
0 0 0 1 1 1 1 1 0 0 0 0 1 1 1 1 1 1 1 1 2 2 1 1 1 2 2 2 2 3 4 4 5 6 5 5 4 4 4 3 3 3 3 3
0 0 1 1 1 1 1 1 1 1 1 1 1 1 1 2 2 2 2 1 1 1 2 2 2 2 2 2 2 2 3 4 4 5 5 5 6 7 6 5 4 4 4 4
0 0 1 1 1 1 1 1 1 2 2 2 2 2 3 3 3 3 2 2 2 2 2 2 2 2 2 2 2 2 3 5 6 7 7 8 9 9 8 6 4 4 5 6
0 0 1 1 1 1 1 1 2 3 4 4 3 3 4 4 5 4 4 3 3 4 4 3 3 3 3 3 3 3 4 6 7 9 10 10 10 9 8 6 4 3 4 5
0 0 0 1 1 1 1 2 3 4 4 4 4 4 4 4 4 5 5 4 4 4 4 4 3 3 4 3 3 4 6 7 9 10 10 9 9 8 8 6 4 3 3 4
0 0 1 1 1 1 2 3 3 4 4 4 4 5 5 4 4 5 5 4 4 5 5 5 4 5 5 4 4 5 7 8 9 9 8 7 6 8 8 7 5 3 3 3
0 1 1 1 1 1 2 3 3 3 4 6 7 7 8 7 7 7 7 5 4 4 5 5 5 6 6 5 5 6 7 7 6 6 5 4 5 6 6 5 5 4 4 4
1 1 1 1 1 1 2 2 3 3 6 10 12 12 11 10 9 9 8 6 5 4 5 5 5 6 5 5 6 7 6 5 4 4 4 4 4 4 4 4 4 4 4 4
0 0 1 1 1 1 1 2 2 5 10 15 16 14 12 10 9 8 7 7 6 5 5 5 5 4 4 5 7 8 6 4 3 3 3 4 4 4 4 4 4 4 4 4
0 0 1 1 1 1 1 1 2 5 9 13 13 11 9 7 6 5 5 5 5 5 5 5 5 5 4 5 7 7 6 4 3 3 3 4 5 5 4 4 4 4 4 5
0 0 1 1 1 1 1 1 1 2 4 5 5 5 5 4 4 3 3 3 3 3 3 4 4 4 4 5 5 5 5 5 4 4 4 5 5 5 5 4 4 4 5 6
0 0 1 1 1 1 1 1 1 1 1 1 1 2 3 3 3 3 3 3 2 2 2 2 3 3 3 4 4 5 5 5 5 5 5 5 5 5 5 5 4 4 6 7

GEFSCGP_con_maxscp_234.txt.gz
SCP
0 0 0 0 0 0 0 0 0 0 0 1 1 2 2 2 2 2 1 2 2 1 1 1 1 1 2 2 3 2 2 1 1 1 1 1 1 1 1 1 1 1 0 0
0 0 0 0 0 0 0 0 0 0 0 1 1 2 2 2 1 1 1 1 2 2 1 1 1 1 2 2 2 2 2 1 1 1 1 1 1 1 1 1 1 1 1 0
0 0 0 0 0 0 0 0 0 0 0 1 1 1 2 2 1 1 1 1 2 2 1 1 1 1 1 2 2 2 2 1 1 1 1 1 1 1 0 0 0 1 1 1
0 0 0 0 0 0 0 0 0 0 0 0 1 1 2 2 1 1 1 1 1 1 1 1 1 1 1 1 1 1 2 2 2 1 1 1 1 1 0 0 0 1 1 1
0 0 0 0 0 0 0 0 0 0 0 0 0 1 1 1 1 1 1 1 1 1 1 1 1 1 1 1 1 1 2 2 2 1 1 1 1 1 1 1 1 1 1 1
1 1 0 0 0 0 0 0 0 0 0 0 0 0 1 1 1 1 1 1 1 2 1 1 1 1 1 1 1 1 2 2 2 2 1 1 1 1 1 1 1 1 1 1
1 1 1 0 0 0 0 0 0 0 0 0 0 1 1 1 1 1 1 1 2 2 1 1 1 1 1 1 1 1 1 2 2 2 2 2 1 1 1 1 1 1 1 1
1 1 1 0 0 0 0 0 0 0 0 0 0 1 1 1 1 1 1 1 2 2 1 1 1 1 1 1 1 1 1 1 2 2 2 2 1 1 1 1 1 1 1 1
1 1 1 0 0 0 0 0 0 0 0 0 0 1 1 1 1 1 1 2 2 2 1 1 1 1 1 1 1 1 1 1 1 2 2 2 1 1 1 1 1 1 1 1
0 1 0 0 0 0 0 0 0 0 0 0 0 1 1 1 1 1 1 2 2 2 1 1 1 1 1 1 1 1 2 2 1 1 1 1 2 2 2 2 2 2 2 2
1 1 0 0 0 0 0 0 0 0 0 0 0 1 1 1 1 1 2 2 2 2 2 1 1 1 1 1 2 2 2 2 2 1 1 2 2 3 3 3 4 5 4 4
1 0 0 0 0 0 0 0 0 0 0 0 0 1 1 1 1 1 2 2 2 2 2 2 2 2 2 2 3 3 3 2 2 2 2 2 3 3 4 4 5 6 6 5
0 0 0 0 0 0 0 0 0 0 0 0 0 1 1 1 1 1 2 2 2 2 2 2 2 2 3 3 4 4 3 2 2 2 3 3 3 4 6 6 6 6 6 6
0 0 0 0 0 0 0 0 0 0 0 0 1 1 1 1 1 2 2 3 3 3 2 2 2 3 3 5 6 5 3 3 3 3 3 3 3 5 7 8 7 6 6 7
0 0 0 0 0 1 1 0 0 0 0 0 1 1 1 2 2 2 3 3 3 3 3 3 3 3 4 6 6 5 3 3 4 4 4 4 4 5 7 7 7 7 7 8
1 1 1 0 0 0 1 1 1 1 1 1 1 1 2 2 3 3 3 4 4 4 4 4 4 4 5 6 6 4 4 4 5 6 5 5 6 6 7 7 6 7 8 8
1 1 0 0 0 0 1 1 1 1 1 1 1 2 2 2 3 3 4 4 4 5 5 6 6 6 6 6 6 5 4 5 6 7 7 8 8 8 7 7 7 7 7 7
1 1 0 0 0 1 1 1 1 1 2 2 2 2 2 3 3 3 4 4 4 4 4 5 6 6 6 7 7 7 5 5 6 8 9 10 9 8 7 7 6 6 6 6
1 1 0 0 0 1 1 1 2 2 2 2 2 3 3 3 3 3 4 4 4 4 4 4 5 6 7 8 8 8 6 5 6 8 11 12 10 8 7 7 6 6 6 6
1 1 0 0 0 1 1 2 2 2 2 3 3 3 3 3 3 4 5 5 5 5 4 4 5 7 8 8 8 7 6 6 7 9 12 13 11 9 8 7 7 7 7 7
1 1 0 0 0 1 2 2 2 2 3 4 4 4 3 3 4 5 5 6 6 5 5 5 6 8 8 8 7 7 7 7 8 9 11 11 10 9 8 7 7 6 7 7
1 1 1 1 1 1 2 2 3 3 4 4 5 5 4 5 5 6 6 6 6 5 5 5 6 7 7 8 8 9 9 9 9 9 9 9 9 8 8 8 7 6 5 5
1 1 1 1 2 2 2 3 3 4 4 5 5 5 5 5 6 6 7 7 6 6 5 5 6 6 7 7 8 9 8 8 8 8 8 8 8 7 7 8 7 6 4 4
2 2 2 2 2 3 3 3 3 4 5 4 4 4 5 6 6 6 6 6 7 7 7 6 5 5 6 6 6 7 6 6 6 6 7 7 7 7 7 6 6 5 4 4
2 2 2 2 3 4 4 3 3 3 3 3 3 3 4 5 6 6 5 5 6 8 7 6 6 5 5 5 5 6 6 6 5 5 5 6 6 6 6 5 5 5 4 4
3 3 2 2 3 4 4 3 2 2 2 2 2 3 4 5 6 7 7 6 6 6 6 6 6 6 6 6 5 6 7 7 6 6 5 4 5 5 5 5 4 4 4 3

GEFSCGP_con_maxscp_240.txt.gz
SCP
0 0 0 0 0 0 0 0 0 0 0 1 1 1 1 1 2 2 2 2 2 2 2 2 2 2 2 3 3 2 2 2 1 1 1 1 1 1 1 1 1 1 1 1
0 0 0 0 0 0 0 0 0 0 0 1 1 1 1 1 2 2 2 2 2 2 2 3 2 2 2 3 3 3 2 2 1 1 1 1 1 1 1 1 2 1 1 1
0 0 0 0 0 0 0 0 0 0 0 1 1 1 1 2 2 1 1 2 2 2 2 3 3 3 3 4 4 4 3 3 2 1 1 1 1 1 1 2 2 2 1 1
0 0 0 0 0 0 0 0 0 0 0 1 1 1 2 2 1 1 2 2 2 2 2 3 3 4 4 4 5 5 5 4 3 2 1 1 1 1 1 2 2 2 2 2
0 0 0 0 0 0 0 0 0 0 0 0 0 1 2 2 1 1 2 2 2 2 2 2 3 3 3 3 4 6 7 6 4 2 1 1 1 1 1 2 2 2 2 2
0 0 0 0 0 0 0 0 0 0 0 0 1 1 1 1 1 2 2 2 2 2 2 2 3 3 3 3 4 6 8 8 5 3 2 1 1 1 1 1 1 2 2 3
0 0 0 0 1 0 0 0 0 0 0 0 1 1 1 1 1 1 2 1 1 2 2 2 3 3 3 3 4 6 9 8 5 3 3 2 2 1 1 1 1 1 2 3
0 0 0 0 1 0 0 0 0 0 0 0 1 2 2 2 2 2 1 2 2 2 2 3 3 3 4 4 5 7 9 8 6 4 3 3 3 2 1 1 1 1 2 2
1 1 1 0 0 0 0 0 0 0 0 0 1 2 3 3 3 2 2 2 3 3 3 3 3 3 4 4 6 7 9 9 7 4 3 3 3 2 2 1 2 2 2 2
1 1 0 0 0 0 0 0 0 0 0 0 1 2 2 2 2 2 3 4 4 4 4 4 3 3 3 4 6 7 8 9 8 5 4 3 3 3 2 2 2 3 3 3
1 0 0 0 0 0 0 0 0 0 0 0 1 1 2 2 2 3 4 5 6 5 4 4 3 3 3 5 6 6 7 8 8 6 5 4 4 4 3 3 4 4 5 5
1 0 0 0 0 0 0 0 0 0 1 1 1 2 2 2 3 5 6 7 6 5 4 4 4 4 4 5 6 6 7 7 8 7 6 5 5 5 5 5 5 6 7 7
1 1 1 0 0 0 0 0 0 0 0 1 1 2 2 3 5 7 7 7 6 6 5 6 6 6 7 7 6 7 8 8 8 7 6 6 6 5 5 5 5 6 7 8
1 1 1 1 0 0 0 0 0 0 0 1 2 2 3 5 7 7 7 6 6 6 7 9 9 9 10 10 9 9 9 10 9 8 7 7 7 6 5 5 6 7 8 9
1 1 1 0 0 0 0 0 0 0 0 1 2 4 4 5 7 8 8 7 6 7 9 11 10 10 12 12 11 10 11 12 12 10 9 9 8 7 6 7 7 9 10 10
1 1 0 0 0 0 0 0 0 0 1 1 3 4 5 6 8 9 8 7 7 8 9 10 9 9 11 11 11 11 12 14 14 13 11 11 9 9 8 9 10 11 13 13
1 1 1 0 0 1 1 1 1 1 1 2 3 4 5 7 9 9 8 8 9 10 11 10 8 9 10 9 10 11 12 14 14 13 13 13 12 12 12 12 12 14 16 15
1 1 1 1 1 1 2 1 2 2 3 3 4 5 7 10 11 10 8 9 10 11 12 10 9 9 9 10 10 11 11 11 12 12 13 15 15 16 16 16 16 17 17 16
1 1 1 1 1 2 2 2 3 4 4 4 5 7 9 13 13 10 8 8 9 10 10 9 9 8 8 10 11 11 10 10 10 12 15 17 19 20 22 22 21 20 19 17
1 1 1 1 2 2 2 2 3 4 5 5 7 9 11 13 12 10 7 7 8 8 9 9 8 7 7 9 10 10 9 9 10 12 16 19 23 25 25 24 23 22 19 16
1 1 1 1 2 2 3 3 4 5 7 7 8 9 11 11 10 9 7 7 7 8 9 10 10 10 8 8 9 9 9 9 11 13 17 21 24 24 23 23 22 20 16 13
1 1 2 2 2 3 5 6 6 8 9 10 11 11 11 10 8 8 8 7 7 8 9 11 12 12 11 10 10 10 11 13 14 16 18 20 19 18 18 19 20 17 13 12
2 2 2 3 4 6 7 7 8 9 10 11 13 14 13 9 8 9 11 11 10 11 12 12 13 13 13 12 11 12 14 16 16 16 16 15 14 14 15 17 17 15 12 11
2 2 3 4 6 7 7 7 7 8 8 8 9 11 11 9 9 12 14 15 14 14 14 14 13 12 13 12 11 10 12 13 13 12 11 11 12 13 13 13 12 11 10 9
2 2 3 4 5 6 6 5 5 6 7 7 7 8 8 8 10 13 15 15 16 17 16 15 13 11 10 10 9 8 10 11 10 9 9 9 10 11 10 9 7 6 6 6
2 2 2 3 4 5 5 4 4 5 6 7 8 9 9 8 9 11 12 14 16 19 18 15 12 10 9 9 8 8 9 10 10 8 8 8 9 9 8 6 5 4 4 4

GEFSCGP_con_maxscp_246.txt.gz
SCP
0 0 0 0 0 0 0 1 1 1 1 1 1 1 1 1 2 2 2 1 1 1 2 2 2 2 2 2 2 2 2 2 1 1 1 1 0 0 0 0 0 0 0 0
0 0 0 0 0 0 0 1 1 1 1 1 1 1 1 1 1 2 1 1 1 1 2 2 2 2 2 2 2 2 2 2 1 1 1 1 0 0 0 0 0 1 0 0
0 0 0 0 0 0 0 0 1 1 1 1 1 1 1 1 1 1 2 2 2 1 2 2 3 3 3 3 2 2 2 2 2 1 1 1 1 1 0 0 0 0 1 1
0 0 0 0 0 0 0 0 0 0 1 1 1 1 1 1 1 1 2 3 3 2 2 2 3 4 4 3 3 3 3 2 2 1 1 1 1 1 0 0 0 0 0 1
0 0 0 0 0 1 0 0 0 0 0 1 1 1 1 1 1 1 2 3 3 2 2 2 3 3 4 4 4 3 3 3 2 2 1 1 1 1 1 0 0 0 1 1
0 0 0 0 0 1 1 1 0 0 0 0 0 1 1 1 1 1 1 2 2 2 1 1 2 3 3 4 5 5 5 4 3 2 1 1 1 1 1 1 1 1 1 1
0 0 0 0 0 1 1 1 0 0 0 0 0 1 1 1 0 1 1 1 1 1 1 1 2 2 3 4 5 6 6 6 5 3 2 1 1 1 1 1 1 1 1 1
0 0 0 0 0 1 1 0 0 0 0 0 0 1 1 1 1 1 1 2 2 2 2 2 2 2 2 3 4 6 7 7 6 4 2 1 1 1 1 1 1 1 1 1
0 0 0 0 0 0 0 0 0 0 0 0 1 1 1 1 1 2 2 3 3 3 3 3 2 2 2 3 3 5 6 7 6 4 3 2 1 1 1 1 1 1 1 1
0 0 0 0 0 0 0 0 0 0 0 0 0 0 1 1 2 3 4 5 5 4 4 3 2 2 3 3 3 4 5 6 6 4 3 2 2 1 1 1 1 1 1 1
0 0 0 0 0 0 0 0 0 0 0 0 0 0 1 2 4 5 6 6 6 5 4 3 3 3 3 3 4 4 4 4 4 4 4 3 2 2 2 2 2 2 2 2
0 0 0 0 0 0 0 0 0 0 0 0 0 1 2 4 6 7 7 6 5 5 4 4 4 3 3 4 5 6 5 4 4 4 4 4 3 2 2 2 2 3 3 3
0 0 0 0 0 0 0 0 0 0 0 0 1 2 5 7 9 8 7 5 5 6 5 5 4 4 4 6 7 7 6 5 5 5 5 5 4 3 2 2 3 3 3 3
0 0 0 0 0 0 0 0 0 0 0 1 2 4 6 9 9 8 5 5 7 9 7 5 4 5 6 8 8 7 6 6 7 7 6 6 4 3 3 3 3 3 3 3
0 0 0 0 0 0 0 0 0 0 1 2 3 5 7 8 7 5 4 5 8 10 9 7 5 6 8 9 8 7 7 8 9 9 8 7 6 4 3 3 4 3 3 3
0 0 1 1 1 2 2 1 1 1 2 3 5 5 6 6 6 5 4 6 8 9 9 9 8 9 10 10 8 6 7 10 12 12 11 10 8 6 4 4 4 4 4 5
0 0 1 1 2 3 4 3 3 3 3 4 5 4 6 8 8 8 8 8 9 10 10 10 10 12 13 12 9 7 8 12 14 14 13 13 10 8 6 6 6 6 6 7
0 1 1 2 2 3 4 4 4 4 4 4 3 4 7 11 12 12 12 12 12 11 11 11 11 13 15 14 11 8 9 12 14 14 14 13 12 10 9 8 8 8 8 8
1 1 2 2 2 2 2 3 4 3 3 3 3 5 8 12 13 13 12 12 11 12 12 12 11 11 13 14 12 10 10 12 14 13 13 13 13 13 13 12 11 11 11 10
1 1 2 2 2 2 2 3 3 3 3 3 4 6 8 10 10 10 10 9 9 9 11 11 9 9 10 11 10 9 10 12 13 13 12 11 11 13 14 14 14 14 13 12
2 2 2 3 3 2 3 3 2 2 3 3 4 5 7 7 8 8 8 8 7 7 8 9 8 7 8 9 8 8 9 11 11 11 10 10 9 10 12 14 15 16 16 15
2 2 2 2 2 3 3 3 2 2 3 4 5 6 6 7 8 8 8 7 7 6 7 8 7 7 8 8 7 7 8 10 10 9 8 8 8 9 10 12 15 18 19 19
1 2 2 2 2 3 3 3 3 3 4 5 6 6 6 7 8 8 8 7 7 6 7 8 9 9 9 9 8 8 8 9 9 7 6 6 8 8 9 10 13 17 19 20
1 1 3 3 3 3 3 4 4 5 6 6 5 5 6 7 7 7 7 7 6 6 6 8 11 12 11 10 9 9 9 9 8 6 5 6 7 7 7 8 10 13 15 16
2 2 3 4 4 4 4 4 5 6 6 5 5 5 5 5 5 5 5 5 6 7 8 9 12 13 13 11 11 9 8 8 6 5 5 5 5 5 5 6 7 8 10 11
2 2 3 4 4 4 4 4 4 4 4 4 5 5 5 4 4 4 4 4 5 7 9 10 12 14 14 13 11 9 8 7 6 5 5 5 4 4 4 5 5 5 6 6

GEFSCGP_con_maxscp_252.txt.gz
SCP
0 0 0 0 0 0 0 0 0 0 0 0 1 1 1 1 1 1 1 1 1 1 1 1 1 1 1 1 1 1 1 1 1 1 1 0 0 0 0 0 0 0 0 0
0 0 0 0 0 0 0 0 0 0 0 1 1 1 1 1 1 1 1 1 1 1 1 1 1 1 1 1 1 1 1 1 1 1 1 0 0 0 0 0 0 0 0 0
0 0 0 0 0 0 0 0 0 0 0 1 1 1 1 1 1 1 1 1 1 1 2 2 1 1 1 1 1 1 1 1 1 1 1 1 0 0 0 0 0 0 0 0
0 0 0 0 0 0 0 0 0 0 1 1 1 1 1 1 1 1 1 1 1 1 2 2 1 1 1 1 1 1 1 1 1 1 1 1 0 0 0 0 0 0 0 0
0 0 0 0 0 0 0 0 0 0 1 1 1 1 1 1 1 1 0 0 0 1 2 2 1 1 1 1 1 1 1 1 1 1 1 1 1 0 0 0 0 0 0 0
0 0 0 0 1 0 0 0 0 0 1 1 1 1 1 1 1 0 0 0 0 1 1 1 1 1 1 1 1 1 1 1 1 1 1 1 1 1 0 0 0 0 0 0
0 0 0 1 1 1 0 0 0 0 0 1 1 1 1 1 0 0 0 0 0 0 1 1 1 1 1 1 1 1 1 1 1 2 2 2 1 1 1 1 1 1 0 0
0 0 0 1 1 0 0 0 0 0 0 1 1 1 1 0 0 0 0 0 0 0 1 1 1 1 1 1 2 2 2 2 2 2 3 3 2 1 1 1 1 1 0 0
0 0 1 1 1 0 0 0 0 0 0 1 1 1 0 0 0 0 1 1 1 1 1 1 1 1 2 2 2 2 2 2 3 3 4 3 3 2 1 1 1 1 1 0
0 1 1 1 1 0 0 0 0 0 0 0 0 0 0 0 0 1 1 1 1 1 1 1 1 2 2 2 2 2 2 2 3 3 4 4 3 2 1 1 1 1 1 1
0 1 1 1 0 0 0 0 0 0 0 0 0 0 0 0 1 2 2 2 2 2 2 2 2 2 2 2 2 2 2 2 2 3 4 4 3 2 1 1 1 1 1 1
0 0 0 0 0 0 0 0 0 0 0 0 0 0 1 1 2 3 3 3 3 2 2 2 2 2 2 2 2 2 2 2 2 3 3 3 2 2 1 1 1 1 1 2
0 0 0 0 0 0 0 0 0 0 0 0 0 0 1 2 3 4 4 4 3 3 3 2 2 2 2 2 2 3 3 3 3 3 3 3 2 2 2 2 1 1 2 2
0 0 0 0 0 0 0 0 0 0 0 0 0 1 1 3 4 4 4 4 4 4 4 4 3 2 2 2 3 3 3 3 3 3 3 3 3 3 2 2 2 2 1 1
0 0 0 0 0 1 1 1 0 0 0 0 1 1 2 3 4 4 3 3 4 5 5 5 5 4 2 2 3 4 4 4 4 4 4 4 4 4 4 4 3 2 2 2
0 0 0 1 1 1 2 2 1 1 1 1 2 3 4 5 4 3 2 3 3 4 5 5 6 5 4 3 3 4 5 4 5 5 6 6 6 6 6 6 4 3 2 2
0 0 0 1 1 2 2 3 3 2 2 3 4 5 5 5 4 3 2 2 3 3 3 5 6 6 6 5 5 6 6 6 5 6 7 9 10 10 8 6 4 3 3 3
0 0 1 1 1 1 2 2 3 4 4 4 4 4 4 4 3 3 3 3 3 4 4 5 6 7 8 7 7 7 7 6 6 6 8 10 12 12 9 5 4 4 4 4
0 1 1 1 1 1 1 2 2 4 5 4 3 3 3 2 2 3 3 4 6 7 6 6 7 8 8 8 8 8 7 7 6 6 8 11 13 14 10 6 4 5 5 5
1 1 1 1 1 1 1 1 1 2 3 3 3 2 2 2 2 2 3 5 7 9 8 7 7 7 7 7 7 7 7 7 7 7 9 12 15 15 11 6 4 5 5 5
1 1 1 1 1 1 1 1 1 1 2 2 2 2 2 2 2 2 3 4 6 7 7 6 6 6 6 6 6 6 6 6 6 6 9 13 16 16 11 6 4 5 5 6
1 1 1 1 1 1 1 1 1 1 2 2 3 2 2 2 2 2 3 3 4 5 5 5 5 5 5 5 5 5 5 4 5 6 10 13 15 14 10 6 5 5 6 6
0 0 1 1 1 1 1 1 1 1 2 3 2 2 2 2 2 2 2 3 4 5 5 6 6 5 5 4 4 4 4 4 5 8 11 13 13 11 8 5 5 5 6 6
0 0 1 2 2 2 1 1 1 2 2 2 2 2 3 2 2 2 2 3 4 5 5 5 5 4 4 3 3 3 3 4 6 9 12 12 11 8 6 4 4 5 5 6
0 1 2 2 2 2 2 2 2 2 3 3 3 3 3 3 2 2 2 2 2 3 3 3 2 2 2 2 2 2 4 5 7 10 12 11 9 6 4 4 3 4 4 4
1 1 1 2 1 1 2 2 2 3 3 3 3 3 3 3 3 2 2 2 2 1 1 1 1 1 2 2 2 2 4 6 8 10 11 10 8 6 4 3 3 3 3 3